| time (UTC) | temp C | wind direction | speed KPH | gust KPH | rain 1hr cm | rain 24hr cm | rain mn cm | humidity % | barometer mb |
| 20260507023703 | 23 | 0 | 6.4 | 16.1 | 0.00 | 0.00 | 0.00 | 89 | 1009.1 |
| 20260507023602 | 23 | 0 | 8.0 | 16.1 | 0.00 | 0.00 | 0.00 | 89 | 1009.1 |
| 20260507023504 | 23 | 0 | 8.0 | 16.1 | 0.00 | 0.00 | 0.00 | 89 | 1009.0 |
| 20260507023402 | 23 | 0 | 9.7 | 16.1 | 0.00 | 0.00 | 0.00 | 89 | 1009.0 |
| 20260507023303 | 23 | 0 | 9.7 | 14.5 | 0.00 | 0.00 | 0.00 | 89 | 1009.0 |
| 20260507023203 | 23 | 0 | 8.0 | 16.1 | 0.00 | 0.00 | 0.00 | 89 | 1009.0 |
| 20260507023103 | 23 | 0 | 8.0 | 16.1 | 0.00 | 0.00 | 0.00 | 89 | 1009.0 |
| 20260507023002 | 23 | 0 | 8.0 | 16.1 | 0.00 | 0.00 | 0.00 | 89 | 1009.0 |
| 20260507022902 | 23 | 0 | 8.0 | 16.1 | 0.00 | 0.00 | 0.00 | 89 | 1008.9 |
| 20260507022802 | 23 | 0 | 8.0 | 16.1 | 0.00 | 0.00 | 0.00 | 89 | 1008.9 |
| 20260507022703 | 23 | 0 | 6.4 | 16.1 | 0.00 | 0.00 | 0.00 | 89 | 1008.9 |
| 20260507022602 | 23 | 0 | 8.0 | 16.1 | 0.00 | 0.00 | 0.00 | 89 | 1008.8 |
| 20260507022502 | 23 | 0 | 8.0 | 16.1 | 0.00 | 0.00 | 0.00 | 89 | 1008.8 |
| 20260507022402 | 23 | 0 | 8.0 | 16.1 | 0.00 | 0.00 | 0.00 | 89 | 1008.8 |
| 20260507022306 | 23 | 0 | 9.7 | 16.1 | 0.00 | 0.00 | 0.00 | 89 | 1008.9 |
| 20260507022202 | 23 | 0 | 9.7 | 16.1 | 0.00 | 0.00 | 0.00 | 89 | 1009.0 |
| 20260507022102 | 23 | 0 | 6.4 | 17.7 | 0.00 | 0.00 | 0.00 | 89 | 1008.9 |
| 20260507022003 | 23 | 305 | 6.4 | 17.7 | 0.00 | 0.00 | 0.00 | 89 | 1008.9 |
| 20260507021902 | 23 | 316 | 6.4 | 17.7 | 0.00 | 0.00 | 0.00 | 89 | 1008.9 |
| 20260507021804 | 23 | 323 | 8.0 | 17.7 | 0.00 | 0.00 | 0.00 | 89 | 1008.9 |
| 20260507021702 | 23 | 293 | 6.4 | 17.7 | 0.00 | 0.00 | 0.00 | 89 | 1008.8 |
| 20260507021601 | 23 | 316 | 4.8 | 17.7 | 0.00 | 0.00 | 0.00 | 89 | 1008.8 |
| 20260507021503 | 23 | 326 | 6.4 | 17.7 | 0.00 | 0.00 | 0.00 | 89 | 1008.8 |
| 20260507021404 | 23 | 329 | 9.7 | 17.7 | 0.00 | 0.00 | 0.00 | 89 | 1008.8 |
| 20260507021302 | 23 | 319 | 9.7 | 17.7 | 0.00 | 0.00 | 0.00 | 89 | 1008.8 |
| 20260507021202 | 23 | 320 | 11.3 | 17.7 | 0.00 | 0.00 | 0.00 | 89 | 1008.8 |
| 20260507021103 | 23 | 310 | 11.3 | 17.7 | 0.00 | 0.00 | 0.00 | 89 | 1008.8 |
| 20260507021002 | 23 | 317 | 11.3 | 17.7 | 0.00 | 0.00 | 0.00 | 89 | 1008.7 |
| 20260507020902 | 23 | 329 | 9.7 | 17.7 | 0.00 | 0.00 | 0.00 | 89 | 1008.7 |
| 20260507020800 | 23 | 317 | 9.7 | 20.9 | 0.00 | 0.00 | 0.00 | 89 | 1008.7 |
| 20260507020659 | 23 | 305 | 9.7 | 20.9 | 0.00 | 0.00 | 0.00 | 89 | 1008.7 |
| 20260507020556 | 23 | 300 | 9.7 | 20.9 | 0.00 | 0.00 | 0.00 | 89 | 1008.7 |
| 20260507020455 | 23 | 310 | 8.0 | 20.9 | 0.00 | 0.00 | 0.00 | 89 | 1008.6 |
| 20260507020355 | 23 | 307 | 8.0 | 20.9 | 0.00 | 0.00 | 0.00 | 89 | 1008.6 |
| 20260507020254 | 23 | 313 | 9.7 | 20.9 | 0.00 | 0.00 | 0.00 | 89 | 1008.6 |
| 20260507020154 | 23 | 327 | 9.7 | 20.9 | 0.00 | 0.00 | 0.00 | 89 | 1008.6 |
| 20260507020055 | 23 | 292 | 9.7 | 20.9 | 0.00 | 0.00 | 0.00 | 89 | 1008.6 |
| 20260507015953 | 23 | 6 | 11.3 | 20.9 | 0.00 | 0.00 | 0.00 | 89 | 1008.5 |
| 20260507015852 | 23 | 0 | 9.7 | 20.9 | 0.00 | 0.00 | 0.00 | 89 | 1008.5 |
| 20260507015753 | 23 | 3 | 8.0 | 19.3 | 0.00 | 0.00 | 0.00 | 89 | 1008.5 |
| 20260507015653 | 23 | 334 | 8.0 | 19.3 | 0.00 | 0.00 | 0.00 | 89 | 1008.5 |
| 20260507015553 | 23 | 326 | 9.7 | 19.3 | 0.00 | 0.00 | 0.00 | 89 | 1008.5 |
| 20260507015453 | 24 | 3 | 8.0 | 19.3 | 0.00 | 0.00 | 0.00 | 89 | 1008.5 |
| 20260507015353 | 24 | 244 | 8.0 | 19.3 | 0.00 | 0.00 | 0.00 | 89 | 1008.5 |
| 20260507015252 | 24 | 4 | 6.4 | 19.3 | 0.00 | 0.00 | 0.00 | 89 | 1008.5 |
| 20260507015154 | 24 | 10 | 6.4 | 19.3 | 0.00 | 0.00 | 0.00 | 89 | 1008.5 |
| 20260507015054 | 24 | 354 | 9.7 | 19.3 | 0.00 | 0.00 | 0.00 | 89 | 1008.4 |
| 20260507014952 | 24 | 353 | 8.0 | 19.3 | 0.00 | 0.00 | 0.00 | 89 | 1008.5 |
| 20260507014854 | 24 | 0 | 6.4 | 16.1 | 0.00 | 0.00 | 0.00 | 89 | 1008.5 |
| 20260507014753 | 24 | 340 | 6.4 | 16.1 | 0.00 | 0.00 | 0.00 | 89 | 1008.5 |
| 20260507014654 | 24 | 314 | 6.4 | 16.1 | 0.00 | 0.00 | 0.00 | 89 | 1008.4 |
| 20260507014553 | 24 | 340 | 6.4 | 17.7 | 0.00 | 0.00 | 0.00 | 89 | 1008.5 |
| 20260507014452 | 24 | 321 | 6.4 | 17.7 | 0.00 | 0.00 | 0.00 | 89 | 1008.4 |
| 20260507014353 | 24 | 316 | 6.4 | 17.7 | 0.00 | 0.00 | 0.00 | 89 | 1008.4 |
| 20260507014252 | 24 | 321 | 8.0 | 17.7 | 0.00 | 0.00 | 0.00 | 89 | 1008.4 |
| 20260507014152 | 24 | 319 | 8.0 | 17.7 | 0.00 | 0.00 | 0.00 | 89 | 1008.4 |
| 20260507014054 | 24 | 341 | 8.0 | 17.7 | 0.00 | 0.00 | 0.00 | 90 | 1008.4 |
| 20260507013953 | 24 | 310 | 8.0 | 17.7 | 0.00 | 0.00 | 0.00 | 90 | 1008.3 |
| 20260507013852 | 24 | 330 | 8.0 | 17.7 | 0.00 | 0.00 | 0.00 | 89 | 1008.4 |
| 20260507013754 | 24 | 338 | 9.7 | 17.7 | 0.00 | 0.00 | 0.00 | 89 | 1008.3 |
| 20260507013654 | 24 | 350 | 11.3 | 17.7 | 0.00 | 0.00 | 0.00 | 90 | 1008.3 |
| 20260507013552 | 24 | 350 | 9.7 | 14.5 | 0.00 | 0.00 | 0.00 | 90 | 1008.3 |
| 20260507013453 | 24 | 344 | 8.0 | 14.5 | 0.00 | 0.00 | 0.00 | 90 | 1008.3 |
| 20260507013353 | 24 | 323 | 8.0 | 14.5 | 0.00 | 0.00 | 0.00 | 90 | 1008.3 |
| 20260507013252 | 24 | 338 | 6.4 | 14.5 | 0.00 | 0.00 | 0.00 | 89 | 1008.3 |
| 20260507013151 | 24 | 329 | 8.0 | 14.5 | 0.00 | 0.00 | 0.00 | 89 | 1008.3 |
| 20260507013052 | 24 | 314 | 9.7 | 14.5 | 0.00 | 0.00 | 0.00 | 89 | 1008.2 |
| 20260507012955 | 24 | 337 | 9.7 | 14.5 | 0.00 | 0.00 | 0.00 | 89 | 1008.2 |
| 20260507012852 | 24 | 327 | 8.0 | 14.5 | 0.00 | 0.00 | 0.00 | 89 | 1008.2 |
| 20260507012752 | 24 | 319 | 6.4 | 14.5 | 0.00 | 0.00 | 0.00 | 89 | 1008.2 |
| 20260507012654 | 24 | 331 | 6.4 | 14.5 | 0.00 | 0.00 | 0.00 | 89 | 1008.2 |
| 20260507012553 | 24 | 319 | 6.4 | 16.1 | 0.00 | 0.00 | 0.00 | 89 | 1008.1 |
| 20260507012452 | 24 | 331 | 6.4 | 20.9 | 0.00 | 0.00 | 0.00 | 89 | 1008.0 |
| 20260507012352 | 24 | 345 | 6.4 | 20.9 | 0.00 | 0.00 | 0.00 | 89 | 1008.0 |
| 20260507012252 | 24 | 330 | 6.4 | 20.9 | 0.00 | 0.00 | 0.00 | 89 | 1008.0 |
| 20260507012151 | 24 | 316 | 6.4 | 20.9 | 0.00 | 0.00 | 0.00 | 89 | 1007.9 |
| 20260507012051 | 25 | 350 | 8.0 | 20.9 | 0.00 | 0.00 | 0.00 | 89 | 1007.9 |
| 20260507011951 | 25 | 319 | 6.4 | 20.9 | 0.00 | 0.00 | 0.00 | 89 | 1007.8 |
| 20260507011852 | 25 | 338 | 6.4 | 20.9 | 0.00 | 0.00 | 0.00 | 88 | 1007.8 |
| 20260507011752 | 25 | 337 | 8.0 | 20.9 | 0.00 | 0.00 | 0.00 | 88 | 1007.8 |
| 20260507011652 | 25 | 336 | 11.3 | 20.9 | 0.00 | 0.00 | 0.00 | 88 | 1007.7 |
| 20260507011553 | 25 | 334 | 9.7 | 20.9 | 0.00 | 0.00 | 0.00 | 88 | 1007.7 |
| 20260507011452 | 25 | 288 | 8.0 | 20.9 | 0.00 | 0.00 | 0.00 | 88 | 1007.7 |
| 20260507011352 | 25 | 310 | 11.3 | 20.9 | 0.00 | 0.00 | 0.00 | 87 | 1007.7 |
| 20260507011252 | 25 | 313 | 12.9 | 20.9 | 0.00 | 0.00 | 0.00 | 87 | 1007.7 |
| 20260507011151 | 25 | 313 | 14.5 | 20.9 | 0.00 | 0.00 | 0.00 | 87 | 1007.7 |
| 20260507011052 | 26 | 309 | 12.9 | 20.9 | 0.00 | 0.00 | 0.00 | 86 | 1007.7 |
| 20260507010951 | 26 | 320 | 12.9 | 20.9 | 0.00 | 0.00 | 0.00 | 85 | 1007.6 |
| 20260507010852 | 26 | 282 | 11.3 | 20.9 | 0.00 | 0.00 | 0.00 | 85 | 1007.7 |
| 20260507010751 | 26 | 283 | 11.3 | 20.9 | 0.00 | 0.00 | 0.00 | 85 | 1007.6 |
| 20260507010651 | 27 | 327 | 11.3 | 20.9 | 0.00 | 0.00 | 0.00 | 85 | 1007.5 |
| 20260507010553 | 27 | 300 | 12.9 | 20.9 | 0.00 | 0.00 | 0.00 | 86 | 1007.5 |
| 20260507010452 | 27 | 312 | 9.7 | 20.9 | 0.00 | 0.00 | 0.00 | 86 | 1007.5 |
| 20260507010351 | 27 | 330 | 3.2 | 11.3 | 0.00 | 0.00 | 0.00 | 86 | 1007.4 |
| 20260507010251 | 27 | 17 | 0.0 | 4.8 | 0.00 | 0.00 | 0.00 | 86 | 1007.3 |
| 20260507010153 | 27 | 114 | 0.0 | 4.8 | 0.00 | 0.00 | 0.00 | 86 | 1007.3 |
| 20260507010054 | 27 | 114 | 1.6 | 6.4 | 0.00 | 0.00 | 0.00 | 86 | 1007.3 |
| 20260507005951 | 27 | 114 | 3.2 | 6.4 | 0.00 | 0.00 | 0.00 | 86 | 1007.3 |
| 20260507005850 | 27 | 134 | 1.6 | 6.4 | 0.00 | 0.00 | 0.00 | 86 | 1007.2 |
| 20260507005748 | 27 | 141 | 1.6 | 6.4 | 0.00 | 0.00 | 0.00 | 86 | 1007.3 |
| 20260507005645 | 27 | 142 | 0.0 | 8.0 | 0.00 | 0.00 | 0.00 | 86 | 1007.2 |
| 20260507005542 | 27 | 141 | 0.0 | 8.0 | 0.00 | 0.00 | 0.00 | 86 | 1007.2 |
| 20260507005441 | 27 | 141 | 1.6 | 9.7 | 0.00 | 0.00 | 0.00 | 86 | 1007.2 |
| 20260507005339 | 27 | 141 | 3.2 | 9.7 | 0.00 | 0.00 | 0.00 | 86 | 1007.1 |
| 20260507005238 | 27 | 89 | 4.8 | 9.7 | 0.00 | 0.00 | 0.00 | 86 | 1007.0 |
| 20260507005136 | 27 | 90 | 3.2 | 9.7 | 0.00 | 0.00 | 0.00 | 86 | 1007.0 |
| 20260507005035 | 27 | 87 | 1.6 | 9.7 | 0.00 | 0.00 | 0.00 | 86 | 1007.0 |
| 20260507004934 | 27 | 85 | 3.2 | 9.7 | 0.00 | 0.00 | 0.00 | 86 | 1006.9 |
| 20260507004831 | 27 | 148 | 3.2 | 9.7 | 0.00 | 0.00 | 0.00 | 86 | 1006.9 |
| 20260507004730 | 27 | 140 | 4.8 | 9.7 | 0.00 | 0.00 | 0.00 | 86 | 1006.9 |
| 20260507004631 | 27 | 110 | 6.4 | 9.7 | 0.00 | 0.00 | 0.00 | 86 | 1007.0 |
| 20260507004533 | 27 | 109 | 8.0 | 9.7 | 0.00 | 0.00 | 0.00 | 86 | 1006.9 |
| 20260507004431 | 27 | 109 | 6.4 | 8.0 | 0.00 | 0.00 | 0.00 | 86 | 1006.9 |
| 20260507004331 | 27 | 123 | 3.2 | 8.0 | 0.00 | 0.00 | 0.00 | 86 | 1006.9 |
| 20260507004230 | 27 | 114 | 3.2 | 8.0 | 0.00 | 0.00 | 0.00 | 86 | 1006.9 |
| 20260507004132 | 27 | 106 | 3.2 | 8.0 | 0.00 | 0.00 | 0.00 | 86 | 1006.9 |
| 20260507004032 | 28 | 135 | 3.2 | 8.0 | 0.00 | 0.00 | 0.00 | 86 | 1006.9 |
| 20260507003931 | 28 | 117 | 3.2 | 8.0 | 0.00 | 0.00 | 0.00 | 86 | 1006.9 |
| 20260507003833 | 28 | 154 | 4.8 | 8.0 | 0.00 | 0.00 | 0.00 | 86 | 1006.8 |
| 20260507003732 | 28 | 124 | 4.8 | 8.0 | 0.00 | 0.00 | 0.00 | 86 | 1006.8 |
| 20260507003631 | 28 | 120 | 3.2 | 8.0 | 0.00 | 0.00 | 0.00 | 86 | 1006.8 |
| 20260507003530 | 28 | 151 | 1.6 | 8.0 | 0.00 | 0.00 | 0.00 | 86 | 1006.8 |
| 20260507003431 | 28 | 97 | 3.2 | 8.0 | 0.00 | 0.00 | 0.00 | 86 | 1006.8 |
| 20260507003331 | 28 | 104 | 3.2 | 8.0 | 0.00 | 0.00 | 0.00 | 86 | 1006.8 |
| 20260507003231 | 28 | 102 | 3.2 | 8.0 | 0.00 | 0.00 | 0.00 | 86 | 1006.8 |
| 20260507003133 | 28 | 100 | 4.8 | 8.0 | 0.00 | 0.00 | 0.00 | 86 | 1006.8 |
| 20260507003032 | 28 | 78 | 4.8 | 8.0 | 0.00 | 0.00 | 0.00 | 86 | 1006.7 |
| 20260507002929 | 28 | 76 | 1.6 | 8.0 | 0.00 | 0.00 | 0.00 | 86 | 1006.7 |
| 20260507002828 | 28 | 68 | 0.0 | 8.0 | 0.00 | 0.00 | 0.00 | 86 | 1006.7 |
| 20260507002723 | 27 | 59 | 0.0 | 8.0 | 0.00 | 0.00 | 0.00 | 86 | 1006.7 |
| 20260507002621 | 27 | 30 | 1.6 | 8.0 | 0.00 | 0.00 | 0.00 | 86 | 1006.8 |
| 20260507002520 | 27 | 30 | 4.8 | 8.0 | 0.00 | 0.00 | 0.00 | 86 | 1006.7 |
| 20260507002416 | 27 | 48 | 4.8 | 8.0 | 0.00 | 0.00 | 0.00 | 86 | 1006.7 |
| 20260507002315 | 27 | 48 | 3.2 | 8.0 | 0.00 | 0.00 | 0.00 | 86 | 1006.7 |
| 20260507002215 | 27 | 31 | 0.0 | 0.0 | 0.00 | 0.00 | 0.00 | 86 | 1006.7 |
| 20260507002112 | 27 | 76 | 0.0 | 1.6 | 0.00 | 0.00 | 0.00 | 86 | 1006.7 |
| 20260507002011 | 27 | 76 | 0.0 | 1.6 | 0.00 | 0.00 | 0.00 | 86 | 1006.7 |
| 20260507001909 | 27 | 76 | 0.0 | 3.2 | 0.00 | 0.00 | 0.00 | 86 | 1006.8 |
| 20260507001807 | 27 | 76 | 0.0 | 3.2 | 0.00 | 0.00 | 0.00 | 86 | 1006.7 |
| 20260507001706 | 27 | 86 | 0.0 | 6.4 | 0.00 | 0.00 | 0.00 | 86 | 1006.7 |
| 20260507001604 | 27 | 86 | 0.0 | 8.0 | 0.00 | 0.00 | 0.00 | 86 | 1006.7 |
| 20260507001505 | 27 | 86 | 0.0 | 8.0 | 0.00 | 0.00 | 0.00 | 86 | 1006.7 |
| 20260507001404 | 28 | 86 | 0.0 | 8.0 | 0.00 | 0.00 | 0.00 | 86 | 1006.7 |
| 20260507001302 | 28 | 86 | 0.0 | 8.0 | 0.00 | 0.00 | 0.00 | 86 | 1006.6 |
| 20260507001203 | 28 | 86 | 0.0 | 8.0 | 0.00 | 0.00 | 0.00 | 85 | 1006.6 |
| 20260507001102 | 28 | 83 | 1.6 | 8.0 | 0.00 | 0.00 | 0.00 | 85 | 1006.6 |
| 20260507001002 | 28 | 79 | 1.6 | 8.0 | 0.00 | 0.00 | 0.00 | 85 | 1006.6 |
| 20260507000902 | 28 | 79 | 3.2 | 8.0 | 0.00 | 0.00 | 0.00 | 85 | 1006.6 |
| 20260507000804 | 28 | 80 | 4.8 | 8.0 | 0.00 | 0.00 | 0.00 | 85 | 1006.7 |
| 20260507000703 | 28 | 76 | 4.8 | 8.0 | 0.00 | 0.00 | 0.00 | 85 | 1006.7 |
| 20260507000602 | 28 | 94 | 3.2 | 8.0 | 0.00 | 0.00 | 0.00 | 84 | 1006.6 |
| 20260507000503 | 28 | 44 | 3.2 | 8.0 | 0.00 | 0.00 | 0.00 | 84 | 1006.5 |
| 20260507000402 | 28 | 25 | 4.8 | 8.0 | 0.00 | 0.00 | 0.00 | 83 | 1006.4 |
| 20260507000306 | 28 | 31 | 3.2 | 8.0 | 0.00 | 0.00 | 0.00 | 83 | 1006.4 |
| 20260507000204 | 28 | 0 | 3.2 | 8.0 | 0.00 | 0.00 | 0.00 | 83 | 1006.5 |
| 20260507000002 | 28 | 0 | 4.8 | 8.0 | 0.00 | 0.00 | 0.00 | 82 | 1006.6 |
| 20260506235903 | 29 | 8 | 4.8 | 14.5 | 0.00 | 0.00 | 0.00 | 82 | 1006.6 |
| 20260506235804 | 29 | 4 | 3.2 | 14.5 | 0.00 | 0.00 | 0.00 | 81 | 1006.6 |
| 20260506235703 | 29 | 327 | 1.6 | 14.5 | 0.00 | 0.00 | 0.00 | 81 | 1006.6 |
| 20260506235603 | 29 | 279 | 1.6 | 14.5 | 0.00 | 0.00 | 0.00 | 81 | 1006.6 |
| 20260506235502 | 29 | 279 | 1.6 | 14.5 | 0.00 | 0.00 | 0.00 | 81 | 1006.6 |
| 20260506235402 | 29 | 92 | 0.0 | 14.5 | 0.00 | 0.00 | 0.00 | 81 | 1006.5 |
| 20260506235306 | 29 | 83 | 1.6 | 14.5 | 0.00 | 0.00 | 0.00 | 81 | 1006.4 |
| 20260506235201 | 29 | 83 | 3.2 | 16.1 | 0.00 | 0.00 | 0.00 | 80 | 1006.4 |
| 20260506235103 | 29 | 178 | 6.4 | 16.1 | 0.00 | 0.00 | 0.00 | 80 | 1006.4 |
| 20260506235003 | 29 | 189 | 8.0 | 16.1 | 0.00 | 0.00 | 0.00 | 81 | 1006.5 |
| 20260506234904 | 29 | 190 | 6.4 | 16.1 | 0.00 | 0.00 | 0.00 | 80 | 1006.4 |
| 20260506234803 | 29 | 166 | 6.4 | 16.1 | 0.00 | 0.00 | 0.00 | 80 | 1006.5 |
| 20260506234703 | 29 | 228 | 4.8 | 16.1 | 0.00 | 0.00 | 0.00 | 81 | 1006.5 |
| 20260506234602 | 29 | 185 | 6.4 | 16.1 | 0.00 | 0.00 | 0.00 | 80 | 1006.5 |
| 20260506234502 | 29 | 197 | 8.0 | 16.1 | 0.00 | 0.00 | 0.00 | 80 | 1006.5 |
| 20260506234403 | 29 | 200 | 9.7 | 16.1 | 0.00 | 0.00 | 0.00 | 80 | 1006.4 |
| 20260506234301 | 29 | 142 | 6.4 | 16.1 | 0.00 | 0.00 | 0.00 | 80 | 1006.4 |
| 20260506234201 | 29 | 164 | 4.8 | 16.1 | 0.00 | 0.00 | 0.00 | 80 | 1006.4 |
| 20260506234103 | 29 | 200 | 6.4 | 16.1 | 0.00 | 0.00 | 0.00 | 80 | 1006.3 |
| 20260506234003 | 29 | 157 | 8.0 | 16.1 | 0.00 | 0.00 | 0.00 | 80 | 1006.4 |
| 20260506233902 | 29 | 227 | 6.4 | 16.1 | 0.00 | 0.00 | 0.00 | 80 | 1006.4 |
| 20260506233802 | 29 | 161 | 8.0 | 16.1 | 0.00 | 0.00 | 0.00 | 80 | 1006.4 |
| 20260506233703 | 29 | 172 | 8.0 | 16.1 | 0.00 | 0.00 | 0.00 | 80 | 1006.5 |
| 20260506233602 | 29 | 188 | 6.4 | 14.5 | 0.00 | 0.00 | 0.00 | 80 | 1006.4 |
| 20260506233502 | 29 | 206 | 6.4 | 14.5 | 0.00 | 0.00 | 0.00 | 80 | 1006.4 |
| 20260506233403 | 29 | 196 | 6.4 | 14.5 | 0.00 | 0.00 | 0.00 | 80 | 1006.5 |
| 20260506233302 | 29 | 200 | 6.4 | 16.1 | 0.00 | 0.00 | 0.00 | 80 | 1006.4 |
| 20260506233201 | 29 | 69 | 6.4 | 16.1 | 0.00 | 0.00 | 0.00 | 80 | 1006.4 |
| 20260506233104 | 29 | 197 | 8.0 | 17.7 | 0.00 | 0.00 | 0.00 | 80 | 1006.4 |
| 20260506233004 | 29 | 188 | 6.4 | 17.7 | 0.00 | 0.00 | 0.00 | 80 | 1006.3 |
| 20260506232902 | 29 | 154 | 4.8 | 17.7 | 0.00 | 0.00 | 0.00 | 80 | 1006.3 |
| 20260506232802 | 29 | 159 | 4.8 | 17.7 | 0.00 | 0.00 | 0.00 | 80 | 1006.2 |
| 20260506232704 | 29 | 135 | 6.4 | 17.7 | 0.00 | 0.00 | 0.00 | 80 | 1006.2 |
| 20260506232603 | 29 | 173 | 6.4 | 17.7 | 0.00 | 0.00 | 0.00 | 80 | 1006.2 |
| 20260506232503 | 29 | 155 | 8.0 | 17.7 | 0.00 | 0.00 | 0.00 | 80 | 1006.2 |
| 20260506232403 | 29 | 161 | 8.0 | 17.7 | 0.00 | 0.00 | 0.00 | 80 | 1006.2 |
| 20260506232306 | 29 | 176 | 9.7 | 17.7 | 0.00 | 0.00 | 0.00 | 79 | 1006.2 |
| 20260506232203 | 29 | 128 | 11.3 | 17.7 | 0.00 | 0.00 | 0.00 | 79 | 1006.2 |
| 20260506232102 | 30 | 203 | 9.7 | 17.7 | 0.00 | 0.00 | 0.00 | 79 | 1006.2 |
| 20260506232004 | 30 | 188 | 9.7 | 17.7 | 0.00 | 0.00 | 0.00 | 79 | 1006.2 |
| 20260506231902 | 30 | 166 | 9.7 | 16.1 | 0.00 | 0.00 | 0.00 | 79 | 1006.3 |
| 20260506231803 | 30 | 189 | 6.4 | 16.1 | 0.00 | 0.00 | 0.00 | 79 | 1006.2 |
| 20260506231704 | 30 | 197 | 6.4 | 16.1 | 0.00 | 0.00 | 0.00 | 79 | 1006.2 |
| 20260506231602 | 30 | 144 | 8.0 | 16.1 | 0.00 | 0.00 | 0.00 | 79 | 1006.3 |
| 20260506231504 | 30 | 168 | 8.0 | 16.1 | 0.00 | 0.00 | 0.00 | 79 | 1006.1 |
| 20260506231402 | 30 | 210 | 6.4 | 11.3 | 0.00 | 0.00 | 0.00 | 79 | 1006.2 |
| 20260506231302 | 30 | 154 | 6.4 | 11.3 | 0.00 | 0.00 | 0.00 | 78 | 1006.2 |
| 20260506231202 | 30 | 193 | 4.8 | 11.3 | 0.00 | 0.00 | 0.00 | 78 | 1006.2 |
| 20260506231102 | 30 | 140 | 3.2 | 11.3 | 0.00 | 0.00 | 0.00 | 78 | 1006.2 |
| 20260506231004 | 30 | 173 | 6.4 | 11.3 | 0.00 | 0.00 | 0.00 | 78 | 1006.2 |
| 20260506230903 | 30 | 130 | 8.0 | 11.3 | 0.00 | 0.00 | 0.00 | 78 | 1006.1 |
| 20260506230804 | 30 | 188 | 4.8 | 11.3 | 0.00 | 0.00 | 0.00 | 78 | 1006.1 |
| 20260506230702 | 30 | 192 | 3.2 | 9.7 | 0.00 | 0.00 | 0.00 | 78 | 1006.1 |
| 20260506230602 | 30 | 173 | 3.2 | 14.5 | 0.00 | 0.00 | 0.00 | 78 | 1006.1 |
| 20260506230502 | 30 | 107 | 4.8 | 14.5 | 0.00 | 0.00 | 0.00 | 78 | 1006.1 |
| 20260506230403 | 30 | 188 | 4.8 | 16.1 | 0.00 | 0.00 | 0.00 | 77 | 1006.1 |
| 20260506230302 | 30 | 182 | 6.4 | 16.1 | 0.00 | 0.00 | 0.00 | 77 | 1006.1 |
| 20260506230202 | 30 | 202 | 4.8 | 16.1 | 0.00 | 0.00 | 0.00 | 77 | 1006.1 |
| 20260506230103 | 30 | 214 | 4.8 | 16.1 | 0.00 | 0.00 | 0.00 | 77 | 1006.2 |
| 20260506230003 | 30 | 110 | 6.4 | 16.1 | 0.00 | 0.00 | 0.00 | 77 | 1006.2 |
| 20260506225902 | 30 | 188 | 6.4 | 16.1 | 0.00 | 0.00 | 0.00 | 77 | 1006.2 |
| 20260506225801 | 30 | 199 | 8.0 | 16.1 | 0.00 | 0.00 | 0.00 | 76 | 1006.2 |
| 20260506225702 | 30 | 200 | 8.0 | 16.1 | 0.00 | 0.00 | 0.00 | 77 | 1006.1 |
| 20260506225603 | 30 | 99 | 8.0 | 16.1 | 0.00 | 0.00 | 0.00 | 76 | 1006.2 |
| 20260506225502 | 30 | 175 | 6.4 | 16.1 | 0.00 | 0.00 | 0.00 | 77 | 1006.1 |
| 20260506225402 | 30 | 193 | 6.4 | 16.1 | 0.00 | 0.00 | 0.00 | 77 | 1006.1 |
| 20260506225305 | 30 | 130 | 6.4 | 16.1 | 0.00 | 0.00 | 0.00 | 77 | 1006.1 |
| 20260506225202 | 30 | 106 | 4.8 | 16.1 | 0.00 | 0.00 | 0.00 | 77 | 1006.1 |
| 20260506225102 | 30 | 111 | 4.8 | 16.1 | 0.00 | 0.00 | 0.00 | 77 | 1006.2 |
| 20260506225004 | 30 | 145 | 6.4 | 16.1 | 0.00 | 0.00 | 0.00 | 77 | 1006.2 |
| 20260506224902 | 30 | 165 | 6.4 | 17.7 | 0.00 | 0.00 | 0.00 | 77 | 1006.2 |
| 20260506224802 | 30 | 128 | 6.4 | 17.7 | 0.00 | 0.00 | 0.00 | 78 | 1006.2 |
| 20260506224703 | 30 | 185 | 8.0 | 17.7 | 0.00 | 0.00 | 0.00 | 77 | 1006.2 |
| 20260506224604 | 30 | 169 | 9.7 | 17.7 | 0.00 | 0.00 | 0.00 | 77 | 1006.1 |
| 20260506224503 | 30 | 185 | 9.7 | 17.7 | 0.00 | 0.00 | 0.00 | 77 | 1006.2 |
| 20260506224402 | 30 | 210 | 9.7 | 17.7 | 0.00 | 0.00 | 0.00 | 77 | 1006.1 |
| 20260506224302 | 30 | 210 | 9.7 | 17.7 | 0.00 | 0.00 | 0.00 | 77 | 1006.2 |
| 20260506224202 | 30 | 212 | 9.7 | 17.7 | 0.00 | 0.00 | 0.00 | 77 | 1006.1 |
| 20260506224102 | 30 | 192 | 9.7 | 17.7 | 0.00 | 0.00 | 0.00 | 76 | 1006.1 |
| 20260506224003 | 30 | 230 | 9.7 | 17.7 | 0.00 | 0.00 | 0.00 | 76 | 1006.1 |
| 20260506223904 | 30 | 183 | 9.7 | 17.7 | 0.00 | 0.00 | 0.00 | 76 | 1006.2 |
| 20260506223802 | 30 | 193 | 8.0 | 17.7 | 0.00 | 0.00 | 0.00 | 77 | 1006.1 |
| 20260506223703 | 30 | 203 | 9.7 | 17.7 | 0.00 | 0.00 | 0.00 | 77 | 1006.1 |
| 20260506223604 | 30 | 172 | 9.7 | 17.7 | 0.00 | 0.00 | 0.00 | 78 | 1006.1 |
| 20260506223503 | 30 | 188 | 8.0 | 20.9 | 0.00 | 0.00 | 0.00 | 78 | 1006.1 |
| 20260506223402 | 30 | 189 | 6.4 | 20.9 | 0.00 | 0.00 | 0.00 | 78 | 1006.2 |
| 20260506223302 | 30 | 100 | 8.0 | 20.9 | 0.00 | 0.00 | 0.00 | 78 | 1006.1 |
| 20260506223202 | 30 | 219 | 8.0 | 20.9 | 0.00 | 0.00 | 0.00 | 79 | 1006.2 |
| 20260506223102 | 30 | 171 | 4.8 | 20.9 | 0.00 | 0.00 | 0.00 | 79 | 1006.1 |
| 20260506223002 | 30 | 134 | 6.4 | 20.9 | 0.00 | 0.00 | 0.00 | 79 | 1006.1 |
| 20260506222905 | 30 | 179 | 8.0 | 20.9 | 0.00 | 0.00 | 0.00 | 79 | 1006.1 |
| 20260506222802 | 30 | 131 | 6.4 | 20.9 | 0.00 | 0.00 | 0.00 | 79 | 1006.2 |
| 20260506222703 | 30 | 188 | 8.0 | 20.9 | 0.00 | 0.00 | 0.00 | 79 | 1006.1 |
| 20260506222602 | 30 | 124 | 9.7 | 20.9 | 0.00 | 0.00 | 0.00 | 79 | 1006.1 |
| 20260506222503 | 30 | 166 | 8.0 | 16.1 | 0.00 | 0.00 | 0.00 | 79 | 1006.1 |
| 20260506222402 | 30 | 250 | 6.4 | 16.1 | 0.00 | 0.00 | 0.00 | 79 | 1006.1 |
| 20260506222301 | 30 | 182 | 4.8 | 16.1 | 0.00 | 0.00 | 0.00 | 79 | 1006.0 |
| 20260506222202 | 30 | 134 | 4.8 | 16.1 | 0.00 | 0.00 | 0.00 | 79 | 1006.0 |
| 20260506222102 | 30 | 195 | 6.4 | 16.1 | 0.00 | 0.00 | 0.00 | 79 | 1006.0 |
| 20260506222003 | 30 | 128 | 8.0 | 16.1 | 0.00 | 0.00 | 0.00 | 79 | 1006.1 |
| 20260506221903 | 30 | 164 | 8.0 | 16.1 | 0.00 | 0.00 | 0.00 | 79 | 1006.0 |
| 20260506221802 | 30 | 130 | 6.4 | 16.1 | 0.00 | 0.00 | 0.00 | 79 | 1006.1 |
| 20260506221703 | 30 | 83 | 6.4 | 17.7 | 0.00 | 0.00 | 0.00 | 79 | 1006.0 |
| 20260506221602 | 30 | 80 | 8.0 | 17.7 | 0.00 | 0.00 | 0.00 | 78 | 1006.0 |
| 20260506221505 | 30 | 162 | 8.0 | 17.7 | 0.00 | 0.00 | 0.00 | 78 | 1006.1 |
| 20260506221401 | 30 | 162 | 6.4 | 17.7 | 0.00 | 0.00 | 0.00 | 79 | 1006.0 |
| 20260506221302 | 30 | 162 | 6.4 | 17.7 | 0.00 | 0.00 | 0.00 | 79 | 1006.0 |
| 20260506221203 | 30 | 125 | 4.8 | 17.7 | 0.00 | 0.00 | 0.00 | 79 | 1006.0 |
| 20260506221103 | 30 | 159 | 6.4 | 17.7 | 0.00 | 0.00 | 0.00 | 79 | 1006.0 |
| 20260506221004 | 30 | 175 | 9.7 | 17.7 | 0.00 | 0.00 | 0.00 | 79 | 1005.9 |
| 20260506220904 | 30 | 165 | 9.7 | 17.7 | 0.00 | 0.00 | 0.00 | 78 | 1005.9 |
| 20260506220802 | 30 | 144 | 8.0 | 17.7 | 0.00 | 0.00 | 0.00 | 78 | 1006.0 |
| 20260506220702 | 30 | 116 | 4.8 | 14.5 | 0.00 | 0.00 | 0.00 | 78 | 1005.9 |
| 20260506220602 | 30 | 125 | 6.4 | 17.7 | 0.00 | 0.00 | 0.00 | 78 | 1006.0 |
| 20260506220503 | 30 | 173 | 9.7 | 17.7 | 0.00 | 0.00 | 0.00 | 78 | 1006.0 |
| 20260506220402 | 30 | 172 | 8.0 | 17.7 | 0.00 | 0.00 | 0.00 | 78 | 1006.0 |
| 20260506220303 | 30 | 157 | 6.4 | 17.7 | 0.00 | 0.00 | 0.00 | 78 | 1006.0 |
| 20260506220204 | 30 | 149 | 8.0 | 17.7 | 0.00 | 0.00 | 0.00 | 78 | 1006.0 |
| 20260506220002 | 30 | 118 | 9.7 | 17.7 | 0.00 | 0.00 | 0.00 | 77 | 1006.0 |
| 20260506215902 | 30 | 118 | 8.0 | 17.7 | 0.00 | 0.00 | 0.00 | 77 | 1005.9 |
| 20260506215803 | 30 | 199 | 8.0 | 17.7 | 0.00 | 0.00 | 0.00 | 77 | 1006.0 |
| 20260506215702 | 30 | 140 | 6.4 | 17.7 | 0.00 | 0.00 | 0.00 | 76 | 1006.0 |
| 20260506215602 | 30 | 189 | 4.8 | 20.9 | 0.00 | 0.00 | 0.00 | 76 | 1005.9 |
| 20260506215504 | 30 | 166 | 8.0 | 20.9 | 0.00 | 0.00 | 0.00 | 76 | 1005.9 |
| 20260506215402 | 30 | 189 | 8.0 | 20.9 | 0.00 | 0.00 | 0.00 | 76 | 1006.0 |
| 20260506215301 | 30 | 189 | 6.4 | 20.9 | 0.00 | 0.00 | 0.00 | 76 | 1006.0 |
| 20260506215201 | 30 | 179 | 6.4 | 20.9 | 0.00 | 0.00 | 0.00 | 76 | 1005.9 |
| 20260506215103 | 30 | 154 | 6.4 | 20.9 | 0.00 | 0.00 | 0.00 | 76 | 1005.9 |
| 20260506215002 | 30 | 240 | 6.4 | 20.9 | 0.00 | 0.00 | 0.00 | 76 | 1006.0 |
| 20260506214902 | 30 | 189 | 6.4 | 20.9 | 0.00 | 0.00 | 0.00 | 76 | 1006.0 |
| 20260506214804 | 30 | 195 | 9.7 | 20.9 | 0.00 | 0.00 | 0.00 | 76 | 1005.9 |
| 20260506214702 | 30 | 203 | 14.5 | 20.9 | 0.00 | 0.00 | 0.00 | 76 | 1005.9 |
| 20260506214603 | 30 | 195 | 11.3 | 19.3 | 0.00 | 0.00 | 0.00 | 76 | 1006.0 |
| 20260506214503 | 30 | 212 | 9.7 | 16.1 | 0.00 | 0.00 | 0.00 | 76 | 1006.0 |
| 20260506214404 | 30 | 197 | 9.7 | 16.1 | 0.00 | 0.00 | 0.00 | 76 | 1006.0 |
| 20260506214301 | 30 | 213 | 11.3 | 16.1 | 0.00 | 0.00 | 0.00 | 76 | 1006.0 |
| 20260506214202 | 30 | 227 | 8.0 | 16.1 | 0.00 | 0.00 | 0.00 | 76 | 1006.0 |
| 20260506214103 | 30 | 199 | 6.4 | 16.1 | 0.00 | 0.00 | 0.00 | 77 | 1006.0 |
| 20260506214002 | 30 | 227 | 8.0 | 16.1 | 0.00 | 0.00 | 0.00 | 77 | 1006.0 |
| 20260506213902 | 30 | 241 | 9.7 | 16.1 | 0.00 | 0.00 | 0.00 | 76 | 1006.0 |
| 20260506213803 | 30 | 250 | 9.7 | 16.1 | 0.00 | 0.00 | 0.00 | 76 | 1006.0 |
| 20260506213702 | 30 | 240 | 9.7 | 16.1 | 0.00 | 0.00 | 0.00 | 76 | 1006.0 |
| 20260506213602 | 30 | 195 | 8.0 | 16.1 | 0.00 | 0.00 | 0.00 | 77 | 1006.0 |
| 20260506213502 | 30 | 175 | 9.7 | 16.1 | 0.00 | 0.00 | 0.00 | 77 | 1005.9 |
| 20260506213402 | 30 | 176 | 8.0 | 16.1 | 0.00 | 0.00 | 0.00 | 77 | 1005.9 |
| 20260506213302 | 30 | 241 | 6.4 | 19.3 | 0.00 | 0.00 | 0.00 | 77 | 1005.9 |
| 20260506213202 | 30 | 192 | 6.4 | 19.3 | 0.00 | 0.00 | 0.00 | 77 | 1005.9 |
| 20260506213103 | 30 | 169 | 6.4 | 19.3 | 0.00 | 0.00 | 0.00 | 77 | 1005.9 |
| 20260506213004 | 30 | 131 | 4.8 | 19.3 | 0.00 | 0.00 | 0.00 | 77 | 1006.0 |
| 20260506212901 | 30 | 80 | 6.4 | 19.3 | 0.00 | 0.00 | 0.00 | 77 | 1006.0 |
| 20260506212803 | 30 | 186 | 9.7 | 19.3 | 0.00 | 0.00 | 0.00 | 77 | 1006.0 |
| 20260506212704 | 30 | 193 | 9.7 | 19.3 | 0.00 | 0.00 | 0.00 | 76 | 1006.0 |
| 20260506212601 | 30 | 224 | 9.7 | 19.3 | 0.00 | 0.00 | 0.00 | 76 | 1006.1 |
| 20260506212502 | 30 | 217 | 9.7 | 19.3 | 0.00 | 0.00 | 0.00 | 75 | 1006.2 |
| 20260506212403 | 30 | 182 | 9.7 | 19.3 | 0.00 | 0.00 | 0.00 | 76 | 1006.1 |
| 20260506212305 | 31 | 173 | 8.0 | 19.3 | 0.00 | 0.00 | 0.00 | 76 | 1006.2 |
| 20260506212202 | 31 | 173 | 6.4 | 11.3 | 0.00 | 0.00 | 0.00 | 76 | 1006.2 |
| 20260506212103 | 31 | 175 | 6.4 | 11.3 | 0.00 | 0.00 | 0.00 | 77 | 1006.3 |
| 20260506212003 | 31 | 186 | 8.0 | 16.1 | 0.00 | 0.00 | 0.00 | 77 | 1006.2 |
| 20260506211901 | 31 | 173 | 6.4 | 16.1 | 0.00 | 0.00 | 0.00 | 77 | 1006.2 |
| 20260506211802 | 30 | 159 | 6.4 | 17.7 | 0.00 | 0.00 | 0.00 | 78 | 1006.1 |
| 20260506211703 | 30 | 135 | 6.4 | 17.7 | 0.00 | 0.00 | 0.00 | 78 | 1006.2 |
| 20260506211602 | 30 | 149 | 6.4 | 19.3 | 0.00 | 0.00 | 0.00 | 78 | 1006.1 |
| 20260506211502 | 30 | 207 | 4.8 | 19.3 | 0.00 | 0.00 | 0.00 | 78 | 1006.1 |
| 20260506211403 | 30 | 51 | 6.4 | 19.3 | 0.00 | 0.00 | 0.00 | 78 | 1006.2 |
| 20260506211302 | 30 | 120 | 6.4 | 19.3 | 0.00 | 0.00 | 0.00 | 78 | 1006.2 |
| 20260506211202 | 30 | 133 | 6.4 | 19.3 | 0.00 | 0.00 | 0.00 | 77 | 1006.2 |
| 20260506211102 | 30 | 138 | 9.7 | 19.3 | 0.00 | 0.00 | 0.00 | 77 | 1006.2 |
| 20260506211004 | 30 | 148 | 9.7 | 19.3 | 0.00 | 0.00 | 0.00 | 77 | 1006.3 |
| 20260506210902 | 30 | 128 | 9.7 | 19.3 | 0.00 | 0.00 | 0.00 | 76 | 1006.2 |
| 20260506210802 | 30 | 85 | 9.7 | 19.3 | 0.00 | 0.00 | 0.00 | 76 | 1006.2 |
| 20260506210703 | 31 | 182 | 9.7 | 19.3 | 0.00 | 0.00 | 0.00 | 76 | 1006.3 |
| 20260506210603 | 31 | 157 | 8.0 | 19.3 | 0.00 | 0.00 | 0.00 | 76 | 1006.3 |
| 20260506210503 | 31 | 227 | 8.0 | 19.3 | 0.00 | 0.00 | 0.00 | 76 | 1006.2 |
| 20260506210403 | 31 | 197 | 6.4 | 19.3 | 0.00 | 0.00 | 0.00 | 76 | 1006.3 |
| 20260506210304 | 31 | 233 | 8.0 | 19.3 | 0.00 | 0.00 | 0.00 | 76 | 1006.2 |
| 20260506210202 | 31 | 233 | 6.4 | 19.3 | 0.00 | 0.00 | 0.00 | 76 | 1006.2 |
| 20260506210004 | 30 | 85 | 8.0 | 19.3 | 0.00 | 0.00 | 0.00 | 76 | 1006.3 |
| 20260506205902 | 30 | 135 | 8.0 | 19.3 | 0.00 | 0.00 | 0.00 | 76 | 1006.3 |
| 20260506205802 | 30 | 254 | 8.0 | 17.7 | 0.00 | 0.00 | 0.00 | 76 | 1006.3 |
| 20260506205703 | 30 | 188 | 9.7 | 17.7 | 0.00 | 0.00 | 0.00 | 76 | 1006.3 |
| 20260506205602 | 31 | 149 | 8.0 | 16.1 | 0.00 | 0.00 | 0.00 | 76 | 1006.4 |
| 20260506205502 | 30 | 202 | 8.0 | 16.1 | 0.00 | 0.00 | 0.00 | 76 | 1006.3 |
| 20260506205401 | 30 | 118 | 9.7 | 16.1 | 0.00 | 0.00 | 0.00 | 76 | 1006.3 |
| 20260506205306 | 31 | 116 | 9.7 | 14.5 | 0.00 | 0.00 | 0.00 | 76 | 1006.3 |
| 20260506205202 | 31 | 130 | 8.0 | 14.5 | 0.00 | 0.00 | 0.00 | 76 | 1006.3 |
| 20260506205102 | 31 | 131 | 6.4 | 14.5 | 0.00 | 0.00 | 0.00 | 76 | 1006.3 |
| 20260506205004 | 31 | 92 | 8.0 | 14.5 | 0.00 | 0.00 | 0.00 | 76 | 1006.3 |
| 20260506204903 | 31 | 176 | 8.0 | 14.5 | 0.00 | 0.00 | 0.00 | 76 | 1006.4 |
| 20260506204801 | 30 | 185 | 6.4 | 14.5 | 0.00 | 0.00 | 0.00 | 77 | 1006.4 |
| 20260506204703 | 30 | 176 | 6.4 | 14.5 | 0.00 | 0.00 | 0.00 | 77 | 1006.4 |
| 20260506204603 | 30 | 189 | 8.0 | 14.5 | 0.00 | 0.00 | 0.00 | 77 | 1006.4 |
| 20260506204503 | 30 | 238 | 8.0 | 14.5 | 0.00 | 0.00 | 0.00 | 78 | 1006.4 |
| 20260506204403 | 30 | 173 | 6.4 | 14.5 | 0.00 | 0.00 | 0.00 | 79 | 1006.4 |
| 20260506204303 | 30 | 125 | 6.4 | 14.5 | 0.00 | 0.00 | 0.00 | 79 | 1006.4 |
| 20260506204202 | 30 | 144 | 6.4 | 14.5 | 0.00 | 0.00 | 0.00 | 79 | 1006.5 |
| 20260506204102 | 30 | 161 | 6.4 | 14.5 | 0.00 | 0.00 | 0.00 | 79 | 1006.5 |
| 20260506204003 | 30 | 121 | 6.4 | 17.7 | 0.00 | 0.00 | 0.00 | 80 | 1006.6 |
| 20260506203903 | 29 | 255 | 6.4 | 17.7 | 0.00 | 0.00 | 0.00 | 80 | 1006.5 |
| 20260506203803 | 29 | 145 | 6.4 | 17.7 | 0.00 | 0.00 | 0.00 | 80 | 1006.5 |
| 20260506203702 | 29 | 127 | 8.0 | 17.7 | 0.00 | 0.00 | 0.00 | 80 | 1006.6 |
| 20260506203603 | 29 | 142 | 8.0 | 17.7 | 0.00 | 0.00 | 0.00 | 80 | 1006.5 |
| 20260506203502 | 29 | 135 | 6.4 | 17.7 | 0.00 | 0.00 | 0.00 | 81 | 1006.6 |
| 20260506203402 | 29 | 200 | 6.4 | 17.7 | 0.00 | 0.00 | 0.00 | 81 | 1006.5 |
| 20260506203303 | 29 | 141 | 6.4 | 17.7 | 0.00 | 0.00 | 0.00 | 81 | 1006.6 |
| 20260506203203 | 29 | 199 | 8.0 | 17.7 | 0.00 | 0.00 | 0.00 | 81 | 1006.6 |
| 20260506203102 | 29 | 175 | 6.4 | 17.7 | 0.00 | 0.00 | 0.00 | 81 | 1006.6 |
| 20260506203002 | 29 | 195 | 4.8 | 17.7 | 0.00 | 0.00 | 0.00 | 81 | 1006.6 |
| 20260506202903 | 29 | 164 | 4.8 | 19.3 | 0.00 | 0.00 | 0.00 | 81 | 1006.6 |
| 20260506202803 | 28 | 171 | 4.8 | 19.3 | 0.00 | 0.00 | 0.00 | 81 | 1006.7 |
| 20260506202702 | 28 | 179 | 4.8 | 19.3 | 0.00 | 0.00 | 0.00 | 81 | 1006.7 |
| 20260506202603 | 28 | 248 | 3.2 | 19.3 | 0.00 | 0.00 | 0.00 | 81 | 1006.7 |
| 20260506202502 | 28 | 169 | 6.4 | 19.3 | 0.00 | 0.00 | 0.00 | 81 | 1006.7 |
| 20260506202402 | 28 | 154 | 8.0 | 19.3 | 0.00 | 0.00 | 0.00 | 81 | 1006.7 |
| 20260506202306 | 28 | 147 | 6.4 | 19.3 | 0.00 | 0.00 | 0.00 | 81 | 1006.7 |
| 20260506202202 | 28 | 102 | 6.4 | 19.3 | 0.00 | 0.00 | 0.00 | 80 | 1006.6 |
| 20260506202103 | 28 | 271 | 9.7 | 19.3 | 0.00 | 0.00 | 0.00 | 80 | 1006.7 |
| 20260506202002 | 29 | 151 | 11.3 | 19.3 | 0.00 | 0.00 | 0.00 | 80 | 1006.7 |
| 20260506201902 | 29 | 168 | 9.7 | 19.3 | 0.00 | 0.00 | 0.00 | 80 | 1006.6 |
| 20260506201801 | 29 | 186 | 6.4 | 17.7 | 0.00 | 0.00 | 0.00 | 79 | 1006.7 |
| 20260506201702 | 29 | 131 | 9.7 | 17.7 | 0.00 | 0.00 | 0.00 | 79 | 1006.7 |
| 20260506201604 | 29 | 171 | 9.7 | 17.7 | 0.00 | 0.00 | 0.00 | 79 | 1006.7 |
| 20260506201503 | 29 | 135 | 9.7 | 17.7 | 0.00 | 0.00 | 0.00 | 79 | 1006.8 |
| 20260506201403 | 29 | 158 | 8.0 | 17.7 | 0.00 | 0.00 | 0.00 | 79 | 1006.7 |
| 20260506201302 | 29 | 78 | 6.4 | 17.7 | 0.00 | 0.00 | 0.00 | 81 | 1006.7 |
| 20260506201203 | 29 | 61 | 6.4 | 17.7 | 0.00 | 0.00 | 0.00 | 81 | 1006.7 |
| 20260506201102 | 29 | 89 | 6.4 | 17.7 | 0.00 | 0.00 | 0.00 | 81 | 1006.7 |
| 20260506201001 | 29 | 152 | 6.4 | 17.7 | 0.00 | 0.00 | 0.00 | 80 | 1006.7 |
| 20260506200902 | 30 | 116 | 8.0 | 17.7 | 0.00 | 0.00 | 0.00 | 79 | 1006.7 |
| 20260506200802 | 30 | 107 | 11.3 | 17.7 | 0.00 | 0.00 | 0.00 | 78 | 1006.7 |
| 20260506200701 | 30 | 104 | 9.7 | 17.7 | 0.00 | 0.00 | 0.00 | 77 | 1006.7 |
| 20260506200558 | 30 | 106 | 6.4 | 17.7 | 0.00 | 0.00 | 0.00 | 76 | 1006.7 |
| 20260506200457 | 30 | 195 | 6.4 | 17.7 | 0.00 | 0.00 | 0.00 | 76 | 1006.7 |
| 20260506200355 | 30 | 121 | 6.4 | 17.7 | 0.00 | 0.00 | 0.00 | 76 | 1006.7 |
| 20260506200254 | 30 | 171 | 4.8 | 16.1 | 0.00 | 0.00 | 0.00 | 76 | 1006.7 |
| 20260506200147 | 30 | 145 | 4.8 | 16.1 | 0.00 | 0.00 | 0.00 | 76 | 1006.6 |
| 20260506200048 | 30 | 109 | 4.8 | 16.1 | 0.00 | 0.00 | 0.00 | 76 | 1006.7 |
| 20260506195946 | 30 | 166 | 3.2 | 16.1 | 0.00 | 0.00 | 0.00 | 77 | 1006.7 |
| 20260506195845 | 30 | 118 | 6.4 | 16.1 | 0.00 | 0.00 | 0.00 | 76 | 1006.7 |
| 20260506195744 | 30 | 138 | 6.4 | 16.1 | 0.00 | 0.00 | 0.00 | 76 | 1006.8 |
| 20260506195645 | 30 | 172 | 6.4 | 16.1 | 0.00 | 0.00 | 0.00 | 76 | 1006.7 |
| 20260506195544 | 30 | 157 | 8.0 | 16.1 | 0.00 | 0.00 | 0.00 | 76 | 1006.7 |
| 20260506195444 | 30 | 135 | 9.7 | 16.1 | 0.00 | 0.00 | 0.00 | 76 | 1006.8 |
| 20260506195346 | 30 | 200 | 8.0 | 16.1 | 0.00 | 0.00 | 0.00 | 76 | 1006.7 |
| 20260506195244 | 30 | 188 | 4.8 | 16.1 | 0.00 | 0.00 | 0.00 | 76 | 1006.8 |
| 20260506195144 | 30 | 192 | 6.4 | 16.1 | 0.00 | 0.00 | 0.00 | 76 | 1006.8 |
| 20260506195044 | 30 | 186 | 8.0 | 16.1 | 0.00 | 0.00 | 0.00 | 76 | 1006.8 |
| 20260506194946 | 30 | 124 | 8.0 | 16.1 | 0.00 | 0.00 | 0.00 | 76 | 1006.8 |
| 20260506194844 | 30 | 252 | 6.4 | 14.5 | 0.00 | 0.00 | 0.00 | 75 | 1006.9 |
| 20260506194744 | 30 | 193 | 6.4 | 14.5 | 0.00 | 0.00 | 0.00 | 75 | 1006.8 |
| 20260506194645 | 30 | 206 | 6.4 | 14.5 | 0.00 | 0.00 | 0.00 | 75 | 1006.9 |
| 20260506194544 | 30 | 195 | 8.0 | 14.5 | 0.00 | 0.00 | 0.00 | 75 | 1006.9 |
| 20260506194444 | 30 | 189 | 8.0 | 14.5 | 0.00 | 0.00 | 0.00 | 76 | 1006.8 |
| 20260506194344 | 30 | 151 | 6.4 | 11.3 | 0.00 | 0.00 | 0.00 | 76 | 1006.8 |
| 20260506194246 | 30 | 196 | 4.8 | 11.3 | 0.00 | 0.00 | 0.00 | 76 | 1006.9 |
| 20260506194144 | 30 | 128 | 3.2 | 11.3 | 0.00 | 0.00 | 0.00 | 76 | 1006.9 |
| 20260506194044 | 30 | 161 | 3.2 | 11.3 | 0.00 | 0.00 | 0.00 | 77 | 1006.9 |
| 20260506193946 | 30 | 186 | 3.2 | 11.3 | 0.00 | 0.00 | 0.00 | 77 | 1007.0 |
| 20260506193845 | 30 | 116 | 3.2 | 11.3 | 0.00 | 0.00 | 0.00 | 77 | 1006.9 |
| 20260506193745 | 30 | 75 | 3.2 | 11.3 | 0.00 | 0.00 | 0.00 | 77 | 1007.0 |
| 20260506193644 | 30 | 149 | 3.2 | 11.3 | 0.00 | 0.00 | 0.00 | 77 | 1006.9 |
| 20260506193546 | 30 | 141 | 4.8 | 16.1 | 0.00 | 0.00 | 0.00 | 76 | 1006.9 |
| 20260506193444 | 30 | 131 | 4.8 | 17.7 | 0.00 | 0.00 | 0.00 | 76 | 1006.9 |
| 20260506193343 | 30 | 158 | 6.4 | 17.7 | 0.00 | 0.00 | 0.00 | 76 | 1006.9 |
| 20260506193244 | 30 | 161 | 4.8 | 17.7 | 0.00 | 0.00 | 0.00 | 76 | 1007.0 |
| 20260506193143 | 30 | 161 | 4.8 | 17.7 | 0.00 | 0.00 | 0.00 | 76 | 1007.0 |
| 20260506193043 | 30 | 127 | 8.0 | 17.7 | 0.00 | 0.00 | 0.00 | 76 | 1007.0 |
| 20260506192946 | 30 | 234 | 8.0 | 17.7 | 0.00 | 0.00 | 0.00 | 77 | 1007.0 |
| 20260506192845 | 30 | 180 | 8.0 | 17.7 | 0.00 | 0.00 | 0.00 | 76 | 1007.0 |
| 20260506192744 | 30 | 221 | 8.0 | 17.7 | 0.00 | 0.00 | 0.00 | 76 | 1007.0 |
| 20260506192644 | 30 | 175 | 8.0 | 17.7 | 0.00 | 0.00 | 0.00 | 76 | 1007.0 |
| 20260506192545 | 30 | 164 | 4.8 | 17.7 | 0.00 | 0.00 | 0.00 | 77 | 1007.0 |
| 20260506192445 | 30 | 45 | 3.2 | 9.7 | 0.00 | 0.00 | 0.00 | 79 | 1007.0 |
| 20260506192344 | 30 | 202 | 3.2 | 9.7 | 0.00 | 0.00 | 0.00 | 79 | 1007.1 |
| 20260506192243 | 29 | 120 | 3.2 | 9.7 | 0.00 | 0.00 | 0.00 | 79 | 1007.1 |
| 20260506192218 | 29 | 175 | 3.2 | 9.7 | 0.00 | 0.00 | 0.00 | 79 | 1007.1 |
| 20260506192043 | 29 | 107 | 4.8 | 9.7 | 0.00 | 0.00 | 0.00 | 79 | 1007.1 |
| 20260506192014 | 29 | 107 | 4.8 | 9.7 | 0.00 | 0.00 | 0.00 | 78 | 1007.0 |
| 20260506191844 | 29 | 114 | 4.8 | 9.7 | 0.00 | 0.00 | 0.00 | 79 | 1007.1 |
| 20260506191744 | 29 | 120 | 6.4 | 9.7 | 0.00 | 0.00 | 0.00 | 79 | 1007.1 |
| 20260506191643 | 29 | 200 | 8.0 | 9.7 | 0.00 | 0.00 | 0.00 | 79 | 1007.1 |
| 20260506191544 | 29 | 188 | 8.0 | 9.7 | 0.00 | 0.00 | 0.00 | 79 | 1007.2 |
| 20260506191445 | 29 | 195 | 6.4 | 9.7 | 0.00 | 0.00 | 0.00 | 79 | 1007.2 |
| 20260506191344 | 29 | 235 | 3.2 | 9.7 | 0.00 | 0.00 | 0.00 | 79 | 1007.2 |
| 20260506191245 | 29 | 123 | 3.2 | 8.0 | 0.00 | 0.00 | 0.00 | 80 | 1007.3 |
| 20260506191144 | 29 | 158 | 1.6 | 8.0 | 0.00 | 0.00 | 0.00 | 80 | 1007.3 |
| 20260506191044 | 29 | 47 | 1.6 | 8.0 | 0.00 | 0.00 | 0.00 | 80 | 1007.3 |
| 20260506190943 | 29 | 142 | 4.8 | 8.0 | 0.00 | 0.00 | 0.00 | 81 | 1007.4 |
| 20260506190845 | 29 | 106 | 4.8 | 8.0 | 0.00 | 0.00 | 0.00 | 81 | 1007.4 |
| 20260506190743 | 29 | 89 | 4.8 | 8.0 | 0.00 | 0.00 | 0.00 | 80 | 1007.4 |
| 20260506190643 | 29 | 142 | 4.8 | 8.0 | 0.00 | 0.00 | 0.00 | 80 | 1007.4 |
| 20260506190541 | 29 | 111 | 3.2 | 8.0 | 0.00 | 0.00 | 0.00 | 80 | 1007.3 |
| 20260506190441 | 29 | 87 | 3.2 | 8.0 | 0.00 | 0.00 | 0.00 | 80 | 1007.3 |
| 20260506190339 | 29 | 111 | 3.2 | 8.0 | 0.00 | 0.00 | 0.00 | 80 | 1007.3 |
| 20260506190237 | 29 | 140 | 4.8 | 8.0 | 0.00 | 0.00 | 0.00 | 79 | 1007.3 |
| 20260506190138 | 29 | 147 | 4.8 | 8.0 | 0.00 | 0.00 | 0.00 | 79 | 1007.4 |
| 20260506190036 | 29 | 121 | 4.8 | 8.0 | 0.00 | 0.00 | 0.00 | 79 | 1007.4 |
| 20260506185933 | 30 | 154 | 4.8 | 9.7 | 0.00 | 0.00 | 0.00 | 78 | 1007.4 |
| 20260506185831 | 30 | 306 | 3.2 | 9.7 | 0.00 | 0.00 | 0.00 | 77 | 1007.4 |
| 20260506185731 | 30 | 245 | 3.2 | 9.7 | 0.00 | 0.00 | 0.00 | 77 | 1007.4 |
| 20260506185633 | 30 | 209 | 1.6 | 9.7 | 0.00 | 0.00 | 0.00 | 77 | 1007.4 |
| 20260506185531 | 30 | 173 | 1.6 | 9.7 | 0.00 | 0.00 | 0.00 | 77 | 1007.5 |
| 20260506185432 | 30 | 127 | 1.6 | 9.7 | 0.00 | 0.00 | 0.00 | 77 | 1007.5 |
| 20260506185332 | 30 | 110 | 1.6 | 9.7 | 0.00 | 0.00 | 0.00 | 77 | 1007.4 |
| 20260506185231 | 30 | 99 | 1.6 | 9.7 | 0.00 | 0.00 | 0.00 | 77 | 1007.5 |
| 20260506185131 | 30 | 99 | 3.2 | 9.7 | 0.00 | 0.00 | 0.00 | 77 | 1007.5 |
| 20260506185031 | 30 | 100 | 6.4 | 9.7 | 0.00 | 0.00 | 0.00 | 77 | 1007.5 |
| 20260506184931 | 30 | 82 | 4.8 | 9.7 | 0.00 | 0.00 | 0.00 | 77 | 1007.5 |
| 20260506184832 | 30 | 59 | 3.2 | 9.7 | 0.00 | 0.00 | 0.00 | 78 | 1007.5 |
| 20260506184731 | 30 | 255 | 4.8 | 9.7 | 0.00 | 0.00 | 0.00 | 77 | 1007.5 |
| 20260506184631 | 30 | 254 | 4.8 | 9.7 | 0.00 | 0.00 | 0.00 | 77 | 1007.5 |
| 20260506184532 | 30 | 264 | 1.6 | 9.7 | 0.00 | 0.00 | 0.00 | 78 | 1007.5 |
| 20260506184430 | 30 | 93 | 1.6 | 9.7 | 0.00 | 0.00 | 0.00 | 79 | 1007.5 |
| 20260506184331 | 30 | 93 | 4.8 | 9.7 | 0.00 | 0.00 | 0.00 | 79 | 1007.5 |
| 20260506184233 | 29 | 94 | 6.4 | 9.7 | 0.00 | 0.00 | 0.00 | 79 | 1007.5 |
| 20260506184130 | 29 | 100 | 6.4 | 9.7 | 0.00 | 0.00 | 0.00 | 79 | 1007.5 |
| 20260506184028 | 29 | 118 | 4.8 | 9.7 | 0.00 | 0.00 | 0.00 | 79 | 1007.5 |
| 20260506183927 | 30 | 133 | 3.2 | 8.0 | 0.00 | 0.00 | 0.00 | 79 | 1007.6 |
| 20260506183826 | 30 | 165 | 3.2 | 8.0 | 0.00 | 0.00 | 0.00 | 79 | 1007.6 |
| 20260506183725 | 30 | 158 | 4.8 | 8.0 | 0.00 | 0.00 | 0.00 | 79 | 1007.6 |
| 20260506183622 | 30 | 168 | 4.8 | 8.0 | 0.00 | 0.00 | 0.00 | 79 | 1007.6 |
| 20260506183516 | 30 | 92 | 4.8 | 8.0 | 0.00 | 0.00 | 0.00 | 80 | 1007.6 |
| 20260506183415 | 29 | 82 | 6.4 | 8.0 | 0.00 | 0.00 | 0.00 | 79 | 1007.6 |
| 20260506183313 | 30 | 93 | 6.4 | 8.0 | 0.00 | 0.00 | 0.00 | 79 | 1007.7 |
| 20260506183211 | 30 | 152 | 4.8 | 8.0 | 0.00 | 0.00 | 0.00 | 79 | 1007.7 |
| 20260506183111 | 30 | 202 | 3.2 | 6.4 | 0.00 | 0.00 | 0.00 | 79 | 1007.7 |
| 20260506183008 | 29 | 102 | 3.2 | 6.4 | 0.00 | 0.00 | 0.00 | 81 | 1007.8 |
| 20260506182907 | 29 | 169 | 3.2 | 6.4 | 0.00 | 0.00 | 0.00 | 80 | 1007.8 |
| 20260506182803 | 29 | 85 | 0.0 | 6.4 | 0.00 | 0.00 | 0.00 | 80 | 1007.8 |
| 20260506182703 | 29 | 168 | 1.6 | 6.4 | 0.00 | 0.00 | 0.00 | 81 | 1007.8 |
| 20260506182603 | 29 | 169 | 3.2 | 6.4 | 0.00 | 0.00 | 0.00 | 81 | 1007.8 |
| 20260506182502 | 29 | 169 | 3.2 | 8.0 | 0.00 | 0.00 | 0.00 | 81 | 1007.9 |
| 20260506182402 | 28 | 220 | 1.6 | 8.0 | 0.00 | 0.00 | 0.00 | 82 | 1007.9 |
| 20260506182306 | 28 | 217 | 1.6 | 8.0 | 0.00 | 0.00 | 0.00 | 82 | 1007.9 |
| 20260506182203 | 28 | 118 | 3.2 | 8.0 | 0.00 | 0.00 | 0.00 | 82 | 1007.9 |
| 20260506182103 | 28 | 99 | 3.2 | 8.0 | 0.00 | 0.00 | 0.00 | 82 | 1007.9 |
| 20260506182003 | 28 | 190 | 1.6 | 8.0 | 0.00 | 0.00 | 0.00 | 82 | 1008.0 |
| 20260506181903 | 28 | 118 | 1.6 | 8.0 | 0.00 | 0.00 | 0.00 | 82 | 1008.0 |
| 20260506181802 | 28 | 118 | 1.6 | 8.0 | 0.00 | 0.00 | 0.00 | 81 | 1008.0 |
| 20260506181703 | 28 | 117 | 3.2 | 8.0 | 0.00 | 0.00 | 0.00 | 82 | 1008.0 |
| 20260506181602 | 28 | 113 | 3.2 | 8.0 | 0.00 | 0.00 | 0.00 | 82 | 1008.1 |
| 20260506181502 | 28 | 130 | 4.8 | 6.4 | 0.00 | 0.00 | 0.00 | 83 | 1008.1 |
| 20260506181402 | 28 | 104 | 3.2 | 6.4 | 0.00 | 0.00 | 0.00 | 82 | 1008.1 |
| 20260506181304 | 28 | 140 | 1.6 | 6.4 | 0.00 | 0.00 | 0.00 | 83 | 1008.2 |
| 20260506181203 | 28 | 200 | 1.6 | 6.4 | 0.00 | 0.00 | 0.00 | 84 | 1008.2 |
| 20260506181100 | 28 | 149 | 1.6 | 6.4 | 0.00 | 0.00 | 0.00 | 84 | 1008.2 |
| 20260506181000 | 28 | 116 | 1.6 | 6.4 | 0.00 | 0.00 | 0.00 | 84 | 1008.2 |
| 20260506180857 | 28 | 111 | 3.2 | 6.4 | 0.00 | 0.00 | 0.00 | 85 | 1008.2 |
| 20260506180756 | 28 | 106 | 3.2 | 6.4 | 0.00 | 0.00 | 0.00 | 85 | 1008.3 |
| 20260506180654 | 28 | 66 | 1.6 | 4.8 | 0.00 | 0.00 | 0.00 | 86 | 1008.3 |
| 20260506180552 | 27 | 134 | 0.0 | 4.8 | 0.00 | 0.00 | 0.00 | 86 | 1008.3 |
| 20260506180450 | 27 | 134 | 0.0 | 4.8 | 0.00 | 0.00 | 0.00 | 86 | 1008.3 |
| 20260506180351 | 27 | 134 | 1.6 | 6.4 | 0.00 | 0.00 | 0.00 | 87 | 1008.4 |
| 20260506180248 | 27 | 135 | 1.6 | 6.4 | 0.00 | 0.00 | 0.00 | 86 | 1008.4 |
| 20260506180147 | 27 | 135 | 0.0 | 6.4 | 0.00 | 0.00 | 0.00 | 87 | 1008.5 |
| 20260506180044 | 27 | 182 | 1.6 | 6.4 | 0.00 | 0.00 | 0.00 | 87 | 1008.5 |
| 20260506175942 | 27 | 183 | 1.6 | 6.4 | 0.00 | 0.00 | 0.00 | 86 | 1008.4 |
| 20260506175843 | 27 | 168 | 1.6 | 6.4 | 0.00 | 0.00 | 0.00 | 86 | 1008.5 |
| 20260506175742 | 27 | 130 | 0.0 | 6.4 | 0.00 | 0.00 | 0.00 | 87 | 1008.5 |
| 20260506175642 | 27 | 124 | 0.0 | 6.4 | 0.00 | 0.00 | 0.00 | 87 | 1008.6 |
| 20260506175541 | 27 | 123 | 3.2 | 6.4 | 0.00 | 0.00 | 0.00 | 87 | 1008.5 |
| 20260506175441 | 27 | 127 | 4.8 | 6.4 | 0.00 | 0.00 | 0.00 | 86 | 1008.6 |
| 20260506175341 | 27 | 154 | 4.8 | 9.7 | 0.00 | 0.00 | 0.00 | 86 | 1008.6 |
| 20260506175241 | 27 | 161 | 3.2 | 9.7 | 0.00 | 0.00 | 0.00 | 87 | 1008.6 |
| 20260506175142 | 27 | 165 | 1.6 | 9.7 | 0.00 | 0.00 | 0.00 | 87 | 1008.5 |
| 20260506175041 | 27 | 113 | 1.6 | 9.7 | 0.00 | 0.00 | 0.00 | 87 | 1008.5 |
| 20260506174941 | 27 | 114 | 3.2 | 9.7 | 0.00 | 0.00 | 0.00 | 86 | 1008.5 |
| 20260506174842 | 27 | 113 | 4.8 | 9.7 | 0.00 | 0.00 | 0.00 | 86 | 1008.6 |
| 20260506174742 | 27 | 140 | 3.2 | 9.7 | 0.00 | 0.00 | 0.00 | 86 | 1008.6 |
| 20260506174643 | 27 | 148 | 4.8 | 9.7 | 0.00 | 0.00 | 0.00 | 86 | 1008.7 |
| 20260506174542 | 27 | 186 | 6.4 | 9.7 | 0.00 | 0.00 | 0.00 | 86 | 1008.6 |
| 20260506174443 | 27 | 190 | 6.4 | 9.7 | 0.00 | 0.00 | 0.00 | 86 | 1008.7 |
| 20260506174341 | 27 | 169 | 4.8 | 9.7 | 0.00 | 0.00 | 0.00 | 85 | 1008.7 |
| 20260506174241 | 27 | 137 | 4.8 | 9.7 | 0.00 | 0.00 | 0.00 | 85 | 1008.7 |
| 20260506174142 | 27 | 154 | 3.2 | 9.7 | 0.00 | 0.00 | 0.00 | 85 | 1008.7 |
| 20260506174043 | 27 | 87 | 3.2 | 9.7 | 0.00 | 0.00 | 0.00 | 85 | 1008.7 |
| 20260506173943 | 27 | 86 | 3.2 | 9.7 | 0.00 | 0.00 | 0.00 | 85 | 1008.8 |
| 20260506173841 | 27 | 164 | 4.8 | 9.7 | 0.00 | 0.00 | 0.00 | 85 | 1008.7 |
| 20260506173743 | 27 | 172 | 3.2 | 11.3 | 0.00 | 0.00 | 0.00 | 85 | 1008.7 |
| 20260506173641 | 27 | 111 | 3.2 | 11.3 | 0.00 | 0.00 | 0.00 | 85 | 1008.7 |
| 20260506173541 | 27 | 117 | 3.2 | 11.3 | 0.00 | 0.00 | 0.00 | 84 | 1008.8 |
| 20260506173442 | 27 | 104 | 3.2 | 11.3 | 0.00 | 0.00 | 0.00 | 84 | 1008.7 |
| 20260506173341 | 27 | 120 | 4.8 | 11.3 | 0.00 | 0.00 | 0.00 | 84 | 1008.8 |
| 20260506173242 | 28 | 151 | 6.4 | 11.3 | 0.00 | 0.00 | 0.00 | 84 | 1008.8 |
| 20260506173142 | 28 | 102 | 6.4 | 11.3 | 0.00 | 0.00 | 0.00 | 84 | 1008.8 |
| 20260506173043 | 28 | 165 | 6.4 | 11.3 | 0.00 | 0.00 | 0.00 | 83 | 1008.8 |
| 20260506172941 | 28 | 133 | 6.4 | 11.3 | 0.00 | 0.00 | 0.00 | 83 | 1008.9 |
| 20260506172841 | 28 | 175 | 4.8 | 11.3 | 0.00 | 0.00 | 0.00 | 83 | 1008.9 |
| 20260506172743 | 28 | 120 | 4.8 | 9.7 | 0.00 | 0.00 | 0.00 | 83 | 1008.8 |
| 20260506172641 | 28 | 171 | 3.2 | 9.7 | 0.00 | 0.00 | 0.00 | 83 | 1008.9 |
| 20260506172540 | 28 | 114 | 3.2 | 8.0 | 0.00 | 0.00 | 0.00 | 83 | 1008.8 |
| 20260506172442 | 28 | 118 | 3.2 | 8.0 | 0.00 | 0.00 | 0.00 | 83 | 1008.8 |
| 20260506172341 | 28 | 128 | 1.6 | 8.0 | 0.00 | 0.00 | 0.00 | 83 | 1008.9 |
| 20260506172241 | 28 | 175 | 3.2 | 9.7 | 0.00 | 0.00 | 0.00 | 83 | 1008.8 |
| 20260506172140 | 28 | 228 | 1.6 | 11.3 | 0.00 | 0.00 | 0.00 | 83 | 1008.8 |
| 20260506172042 | 28 | 231 | 1.6 | 11.3 | 0.00 | 0.00 | 0.00 | 84 | 1008.9 |
| 20260506171941 | 28 | 271 | 1.6 | 11.3 | 0.00 | 0.00 | 0.00 | 84 | 1008.9 |
| 20260506171841 | 28 | 116 | 3.2 | 11.3 | 0.00 | 0.00 | 0.00 | 84 | 1008.9 |
| 20260506171741 | 28 | 104 | 4.8 | 14.5 | 0.00 | 0.00 | 0.00 | 84 | 1008.9 |
| 20260506171640 | 28 | 82 | 3.2 | 14.5 | 0.00 | 0.00 | 0.00 | 84 | 1008.9 |
| 20260506171540 | 28 | 172 | 3.2 | 14.5 | 0.00 | 0.00 | 0.00 | 85 | 1008.9 |
| 20260506171440 | 28 | 161 | 4.8 | 14.5 | 0.00 | 0.00 | 0.00 | 85 | 1008.9 |
| 20260506171341 | 28 | 118 | 6.4 | 14.5 | 0.00 | 0.00 | 0.00 | 84 | 1008.9 |
| 20260506171241 | 28 | 107 | 6.4 | 14.5 | 0.00 | 0.00 | 0.00 | 84 | 1009.0 |
| 20260506171140 | 28 | 85 | 3.2 | 14.5 | 0.00 | 0.00 | 0.00 | 85 | 1008.9 |
| 20260506171040 | 28 | 110 | 4.8 | 14.5 | 0.00 | 0.00 | 0.00 | 84 | 1009.0 |
| 20260506170941 | 28 | 195 | 6.4 | 14.5 | 0.00 | 0.00 | 0.00 | 85 | 1009.0 |
| 20260506170840 | 28 | 148 | 4.8 | 14.5 | 0.00 | 0.00 | 0.00 | 84 | 1009.0 |
| 20260506170741 | 28 | 147 | 4.8 | 11.3 | 0.00 | 0.00 | 0.00 | 84 | 1009.1 |
| 20260506170641 | 28 | 204 | 4.8 | 11.3 | 0.00 | 0.00 | 0.00 | 84 | 1009.0 |
| 20260506170541 | 28 | 0 | 3.2 | 11.3 | 0.00 | 0.00 | 0.00 | 85 | 1009.0 |
| 20260506170440 | 28 | 0 | 3.2 | 14.5 | 0.00 | 0.00 | 0.00 | 85 | 1009.0 |
| 20260506170342 | 27 | 0 | 4.8 | 14.5 | 0.00 | 0.00 | 0.00 | 85 | 1008.9 |
| 20260506170240 | 27 | 65 | 6.4 | 14.5 | 0.00 | 0.00 | 0.00 | 85 | 1008.9 |
| 20260506170141 | 27 | 107 | 6.4 | 14.5 | 0.00 | 0.00 | 0.00 | 85 | 1009.0 |
| 20260506170041 | 27 | 161 | 6.4 | 14.5 | 0.00 | 0.00 | 0.00 | 86 | 1009.0 |
| 20260506165937 | 27 | 109 | 6.4 | 14.5 | 0.00 | 0.00 | 0.00 | 86 | 1008.9 |
| 20260506165837 | 27 | 103 | 6.4 | 14.5 | 0.00 | 0.00 | 0.00 | 86 | 1008.9 |
| 20260506165734 | 27 | 151 | 6.4 | 14.5 | 0.00 | 0.00 | 0.00 | 86 | 1008.9 |
| 20260506165633 | 27 | 173 | 8.0 | 14.5 | 0.00 | 0.00 | 0.00 | 86 | 1008.9 |
| 20260506165531 | 27 | 142 | 8.0 | 14.5 | 0.00 | 0.00 | 0.00 | 86 | 1008.9 |
| 20260506165431 | 27 | 203 | 6.4 | 14.5 | 0.00 | 0.00 | 0.00 | 87 | 1008.9 |
| 20260506165334 | 27 | 107 | 6.4 | 14.5 | 0.00 | 0.00 | 0.00 | 87 | 1008.9 |
| 20260506165232 | 27 | 121 | 6.4 | 14.5 | 0.00 | 0.00 | 0.00 | 87 | 1008.9 |
| 20260506165132 | 27 | 135 | 4.8 | 14.5 | 0.00 | 0.00 | 0.00 | 87 | 1009.0 |
| 20260506165033 | 27 | 169 | 6.4 | 14.5 | 0.00 | 0.00 | 0.00 | 87 | 1009.0 |
| 20260506164932 | 27 | 100 | 9.7 | 14.5 | 0.00 | 0.00 | 0.00 | 87 | 1009.0 |
| 20260506164830 | 27 | 140 | 8.0 | 16.1 | 0.00 | 0.00 | 0.00 | 87 | 1008.9 |
| 20260506164730 | 27 | 158 | 6.4 | 16.1 | 0.00 | 0.00 | 0.00 | 87 | 1008.9 |
| 20260506164630 | 27 | 152 | 4.8 | 16.1 | 0.00 | 0.00 | 0.00 | 87 | 1008.9 |
| 20260506164531 | 27 | 110 | 3.2 | 16.1 | 0.00 | 0.00 | 0.00 | 87 | 1008.9 |
| 20260506164431 | 27 | 125 | 4.8 | 16.1 | 0.00 | 0.00 | 0.00 | 87 | 1008.9 |
| 20260506164330 | 27 | 134 | 4.8 | 19.3 | 0.00 | 0.00 | 0.00 | 87 | 1009.0 |
| 20260506164212 | 27 | 124 | 4.8 | 19.3 | 0.00 | 0.00 | 0.00 | 86 | 1009.0 |
| 20260506164111 | 27 | 109 | 6.4 | 19.3 | 0.00 | 0.00 | 0.00 | 86 | 1008.9 |
| 20260506164010 | 27 | 207 | 6.4 | 19.3 | 0.00 | 0.00 | 0.00 | 86 | 1009.0 |
| 20260506163907 | 27 | 165 | 8.0 | 19.3 | 0.00 | 0.00 | 0.00 | 85 | 1009.0 |
| 20260506163806 | 27 | 192 | 6.4 | 19.3 | 0.00 | 0.00 | 0.00 | 85 | 1008.9 |
| 20260506163704 | 27 | 164 | 6.4 | 19.3 | 0.00 | 0.00 | 0.00 | 85 | 1008.9 |
| 20260506163603 | 27 | 148 | 6.4 | 19.3 | 0.00 | 0.00 | 0.00 | 85 | 1009.0 |
| 20260506163502 | 27 | 197 | 8.0 | 19.3 | 0.00 | 0.00 | 0.00 | 85 | 1008.9 |
| 20260506163403 | 27 | 176 | 9.7 | 19.3 | 0.00 | 0.00 | 0.00 | 84 | 1008.9 |
| 20260506163303 | 27 | 190 | 8.0 | 14.5 | 0.00 | 0.00 | 0.00 | 84 | 1008.9 |
| 20260506163201 | 27 | 196 | 6.4 | 11.3 | 0.00 | 0.00 | 0.00 | 85 | 1008.8 |
| 20260506163101 | 27 | 179 | 4.8 | 11.3 | 0.00 | 0.00 | 0.00 | 85 | 1008.8 |
| 20260506163004 | 27 | 197 | 1.6 | 8.0 | 0.00 | 0.00 | 0.00 | 85 | 1008.7 |
| 20260506162902 | 27 | 164 | 1.6 | 8.0 | 0.00 | 0.00 | 0.00 | 85 | 1008.8 |
| 20260506162802 | 27 | 192 | 3.2 | 8.0 | 0.00 | 0.00 | 0.00 | 85 | 1008.8 |
| 20260506162704 | 27 | 155 | 3.2 | 8.0 | 0.00 | 0.00 | 0.00 | 85 | 1008.7 |
| 20260506162601 | 27 | 168 | 3.2 | 9.7 | 0.00 | 0.00 | 0.00 | 85 | 1008.7 |
| 20260506162502 | 27 | 148 | 4.8 | 9.7 | 0.00 | 0.00 | 0.00 | 85 | 1008.8 |
| 20260506162403 | 27 | 106 | 4.8 | 11.3 | 0.00 | 0.00 | 0.00 | 85 | 1008.8 |
| 20260506162306 | 27 | 180 | 4.8 | 11.3 | 0.00 | 0.00 | 0.00 | 85 | 1008.7 |
| 20260506162203 | 27 | 135 | 4.8 | 11.3 | 0.00 | 0.00 | 0.00 | 85 | 1008.7 |
| 20260506162104 | 27 | 135 | 4.8 | 11.3 | 0.00 | 0.00 | 0.00 | 85 | 1008.7 |
| 20260506162003 | 27 | 135 | 4.8 | 11.3 | 0.00 | 0.00 | 0.00 | 85 | 1008.7 |
| 20260506161902 | 27 | 135 | 4.8 | 11.3 | 0.00 | 0.00 | 0.00 | 85 | 1008.7 |
| 20260506161803 | 27 | 135 | 4.8 | 11.3 | 0.00 | 0.00 | 0.00 | 85 | 1008.7 |
| 20260506161703 | 27 | 99 | 6.4 | 11.3 | 0.00 | 0.00 | 0.00 | 85 | 1008.7 |
| 20260506161604 | 27 | 154 | 6.4 | 11.3 | 0.00 | 0.00 | 0.00 | 85 | 1008.5 |
| 20260506161503 | 27 | 152 | 6.4 | 11.3 | 0.00 | 0.00 | 0.00 | 85 | 1008.6 |
| 20260506161403 | 27 | 157 | 6.4 | 11.3 | 0.00 | 0.00 | 0.00 | 85 | 1008.5 |
| 20260506161303 | 27 | 168 | 6.4 | 11.3 | 0.00 | 0.00 | 0.00 | 85 | 1008.5 |
| 20260506161202 | 27 | 182 | 6.4 | 9.7 | 0.00 | 0.00 | 0.00 | 85 | 1008.5 |
| 20260506161102 | 27 | 131 | 4.8 | 9.7 | 0.00 | 0.00 | 0.00 | 85 | 1008.6 |
| 20260506161004 | 27 | 162 | 4.8 | 9.7 | 0.00 | 0.00 | 0.00 | 85 | 1008.6 |
| 20260506160903 | 27 | 173 | 3.2 | 9.7 | 0.00 | 0.00 | 0.00 | 85 | 1008.6 |
| 20260506160801 | 27 | 106 | 4.8 | 9.7 | 0.00 | 0.00 | 0.00 | 85 | 1008.6 |
| 20260506160702 | 27 | 131 | 3.2 | 9.7 | 0.00 | 0.00 | 0.00 | 86 | 1008.6 |
| 20260506160603 | 27 | 123 | 1.6 | 9.7 | 0.00 | 0.00 | 0.00 | 86 | 1008.6 |
| 20260506160504 | 27 | 97 | 0.0 | 9.7 | 0.00 | 0.00 | 0.00 | 86 | 1008.7 |
| 20260506160403 | 27 | 157 | 3.2 | 9.7 | 0.00 | 0.00 | 0.00 | 86 | 1008.7 |
| 20260506160303 | 27 | 157 | 4.8 | 9.7 | 0.00 | 0.00 | 0.00 | 86 | 1008.6 |
| 20260506160202 | 27 | 151 | 4.8 | 9.7 | 0.00 | 0.00 | 0.00 | 86 | 1008.7 |
| 20260506160103 | 27 | 178 | 6.4 | 9.7 | 0.00 | 0.00 | 0.00 | 86 | 1008.7 |
| 20260506160004 | 27 | 134 | 6.4 | 9.7 | 0.00 | 0.00 | 0.00 | 86 | 1008.6 |
| 20260506155903 | 27 | 110 | 6.4 | 9.7 | 0.00 | 0.00 | 0.00 | 86 | 1008.7 |
| 20260506155802 | 27 | 155 | 6.4 | 9.7 | 0.00 | 0.00 | 0.00 | 86 | 1008.7 |
| 20260506155702 | 27 | 138 | 4.8 | 9.7 | 0.00 | 0.00 | 0.00 | 86 | 1008.7 |
| 20260506155603 | 27 | 182 | 4.8 | 9.7 | 0.00 | 0.00 | 0.00 | 86 | 1008.7 |
| 20260506155502 | 27 | 178 | 4.8 | 9.7 | 0.00 | 0.00 | 0.00 | 86 | 1008.7 |
| 20260506155403 | 27 | 135 | 4.8 | 9.7 | 0.00 | 0.00 | 0.00 | 86 | 1008.6 |
| 20260506155306 | 27 | 120 | 4.8 | 9.7 | 0.00 | 0.00 | 0.00 | 86 | 1008.6 |
| 20260506155203 | 27 | 137 | 4.8 | 9.7 | 0.00 | 0.00 | 0.00 | 86 | 1008.6 |
| 20260506155103 | 27 | 162 | 3.2 | 9.7 | 0.00 | 0.00 | 0.00 | 86 | 1008.5 |
| 20260506155003 | 27 | 224 | 3.2 | 11.3 | 0.00 | 0.00 | 0.00 | 86 | 1008.6 |
| 20260506154902 | 27 | 125 | 3.2 | 11.3 | 0.00 | 0.00 | 0.00 | 86 | 1008.5 |
| 20260506154802 | 27 | 190 | 6.4 | 11.3 | 0.00 | 0.00 | 0.00 | 86 | 1008.6 |
| 20260506154702 | 27 | 165 | 6.4 | 11.3 | 0.00 | 0.00 | 0.00 | 86 | 1008.5 |
| 20260506154603 | 27 | 172 | 4.8 | 11.3 | 0.00 | 0.00 | 0.00 | 86 | 1008.6 |
| 20260506154503 | 27 | 154 | 3.2 | 11.3 | 0.00 | 0.00 | 0.00 | 86 | 1008.6 |
| 20260506154404 | 27 | 114 | 4.8 | 11.3 | 0.00 | 0.00 | 0.00 | 86 | 1008.6 |
| 20260506154303 | 27 | 154 | 6.4 | 11.3 | 0.00 | 0.00 | 0.00 | 86 | 1008.6 |
| 20260506154202 | 27 | 169 | 8.0 | 11.3 | 0.00 | 0.00 | 0.00 | 86 | 1008.5 |
| 20260506154102 | 27 | 120 | 6.4 | 11.3 | 0.00 | 0.00 | 0.00 | 86 | 1008.5 |
| 20260506154002 | 27 | 124 | 6.4 | 11.3 | 0.00 | 0.00 | 0.00 | 86 | 1008.6 |
| 20260506153903 | 27 | 147 | 8.0 | 11.3 | 0.00 | 0.00 | 0.00 | 86 | 1008.6 |
| 20260506153802 | 27 | 164 | 6.4 | 9.7 | 0.00 | 0.00 | 0.00 | 86 | 1008.5 |
| 20260506153703 | 27 | 113 | 4.8 | 9.7 | 0.00 | 0.00 | 0.00 | 86 | 1008.5 |
| 20260506153603 | 27 | 206 | 6.4 | 14.5 | 0.00 | 0.00 | 0.00 | 86 | 1008.5 |
| 20260506153502 | 27 | 189 | 6.4 | 14.5 | 0.00 | 0.00 | 0.00 | 86 | 1008.5 |
| 20260506153402 | 27 | 157 | 4.8 | 14.5 | 0.00 | 0.00 | 0.00 | 86 | 1008.5 |
| 20260506153302 | 27 | 178 | 4.8 | 14.5 | 0.00 | 0.00 | 0.00 | 86 | 1008.5 |
| 20260506153203 | 27 | 145 | 4.8 | 14.5 | 0.00 | 0.00 | 0.00 | 86 | 1008.5 |
| 20260506153103 | 27 | 127 | 3.2 | 14.5 | 0.00 | 0.00 | 0.00 | 86 | 1008.4 |
| 20260506153003 | 27 | 147 | 4.8 | 14.5 | 0.00 | 0.00 | 0.00 | 86 | 1008.4 |
| 20260506152903 | 27 | 142 | 8.0 | 14.5 | 0.00 | 0.00 | 0.00 | 86 | 1008.4 |
| 20260506152803 | 27 | 140 | 8.0 | 14.5 | 0.00 | 0.00 | 0.00 | 86 | 1008.4 |
| 20260506152702 | 27 | 172 | 6.4 | 14.5 | 0.00 | 0.00 | 0.00 | 86 | 1008.4 |
| 20260506152602 | 27 | 178 | 6.4 | 11.3 | 0.00 | 0.00 | 0.00 | 86 | 1008.4 |
| 20260506152505 | 27 | 121 | 6.4 | 11.3 | 0.00 | 0.00 | 0.00 | 86 | 1008.3 |
| 20260506152402 | 27 | 165 | 6.4 | 11.3 | 0.00 | 0.00 | 0.00 | 86 | 1008.4 |
| 20260506152305 | 27 | 138 | 3.2 | 16.1 | 0.00 | 0.00 | 0.00 | 86 | 1008.3 |
| 20260506152203 | 27 | 169 | 3.2 | 16.1 | 0.00 | 0.00 | 0.00 | 86 | 1008.4 |
| 20260506152103 | 27 | 171 | 4.8 | 16.1 | 0.00 | 0.00 | 0.00 | 86 | 1008.3 |
| 20260506152003 | 27 | 73 | 4.8 | 16.1 | 0.00 | 0.00 | 0.00 | 86 | 1008.2 |
| 20260506151903 | 27 | 118 | 3.2 | 16.1 | 0.00 | 0.00 | 0.00 | 86 | 1008.3 |
| 20260506151802 | 27 | 178 | 3.2 | 16.1 | 0.00 | 0.00 | 0.00 | 87 | 1008.3 |
| 20260506151702 | 27 | 113 | 4.8 | 16.1 | 0.00 | 0.00 | 0.00 | 86 | 1008.2 |
| 20260506151603 | 27 | 114 | 6.4 | 16.1 | 0.00 | 0.00 | 0.00 | 86 | 1008.1 |
| 20260506151504 | 27 | 97 | 8.0 | 16.1 | 0.00 | 0.00 | 0.00 | 86 | 1008.1 |
| 20260506151403 | 27 | 137 | 9.7 | 16.1 | 0.00 | 0.00 | 0.00 | 86 | 1008.0 |
| 20260506151303 | 27 | 113 | 8.0 | 14.5 | 0.00 | 0.00 | 0.00 | 86 | 1008.1 |
| 20260506151203 | 27 | 173 | 6.4 | 14.5 | 0.00 | 0.00 | 0.00 | 86 | 1008.1 |
| 20260506151103 | 27 | 148 | 4.8 | 11.3 | 0.00 | 0.00 | 0.00 | 86 | 1008.2 |
| 20260506151002 | 27 | 175 | 4.8 | 11.3 | 0.00 | 0.00 | 0.00 | 86 | 1008.1 |
| 20260506150901 | 27 | 197 | 4.8 | 11.3 | 0.00 | 0.00 | 0.00 | 87 | 1008.1 |
| 20260506150803 | 27 | 109 | 6.4 | 11.3 | 0.00 | 0.00 | 0.00 | 86 | 1008.2 |
| 20260506150703 | 27 | 123 | 8.0 | 11.3 | 0.00 | 0.00 | 0.00 | 87 | 1008.1 |
| 20260506150604 | 27 | 131 | 6.4 | 14.5 | 0.00 | 0.00 | 0.00 | 87 | 1008.1 |
| 20260506150504 | 27 | 100 | 6.4 | 14.5 | 0.00 | 0.00 | 0.00 | 86 | 1008.1 |
| 20260506150402 | 27 | 118 | 6.4 | 14.5 | 0.00 | 0.00 | 0.00 | 87 | 1008.1 |
| 20260506150304 | 27 | 69 | 6.4 | 14.5 | 0.00 | 0.00 | 0.00 | 86 | 1008.1 |
| 20260506150203 | 27 | 117 | 6.4 | 14.5 | 0.00 | 0.00 | 0.00 | 86 | 1008.1 |
| 20260506150002 | 27 | 120 | 4.8 | 14.5 | 0.00 | 0.00 | 0.00 | 87 | 1008.1 |
| 20260506145902 | 27 | 152 | 4.8 | 14.5 | 0.00 | 0.00 | 0.00 | 87 | 1008.1 |
| 20260506145801 | 27 | 176 | 6.4 | 14.5 | 0.00 | 0.00 | 0.00 | 86 | 1008.1 |
| 20260506145701 | 27 | 162 | 8.0 | 14.5 | 0.00 | 0.00 | 0.00 | 87 | 1008.1 |
| 20260506145603 | 27 | 195 | 6.4 | 9.7 | 0.00 | 0.00 | 0.00 | 87 | 1008.0 |
| 20260506145503 | 27 | 142 | 4.8 | 9.7 | 0.00 | 0.00 | 0.00 | 87 | 1008.0 |
| 20260506145403 | 27 | 164 | 4.8 | 9.7 | 0.00 | 0.00 | 0.00 | 87 | 1008.0 |
| 20260506145305 | 27 | 171 | 4.8 | 9.7 | 0.00 | 0.00 | 0.00 | 87 | 1007.9 |
| 20260506145204 | 27 | 203 | 3.2 | 9.7 | 0.00 | 0.00 | 0.00 | 88 | 1008.0 |
| 20260506145103 | 26 | 116 | 4.8 | 9.7 | 0.00 | 0.00 | 0.00 | 87 | 1007.9 |
| 20260506145003 | 26 | 135 | 6.4 | 9.7 | 0.00 | 0.00 | 0.00 | 87 | 1007.9 |
| 20260506144902 | 27 | 107 | 4.8 | 9.7 | 0.00 | 0.00 | 0.00 | 87 | 1007.9 |
| 20260506144804 | 27 | 113 | 4.8 | 9.7 | 0.00 | 0.00 | 0.00 | 87 | 1007.8 |
| 20260506144702 | 27 | 103 | 3.2 | 14.5 | 0.00 | 0.00 | 0.00 | 87 | 1007.8 |
| 20260506144602 | 27 | 103 | 3.2 | 14.5 | 0.00 | 0.00 | 0.00 | 87 | 1007.9 |
| 20260506144503 | 27 | 127 | 1.6 | 14.5 | 0.00 | 0.00 | 0.00 | 88 | 1007.8 |
| 20260506144402 | 27 | 124 | 3.2 | 14.5 | 0.00 | 0.00 | 0.00 | 88 | 1007.7 |
| 20260506144303 | 27 | 111 | 3.2 | 14.5 | 0.00 | 0.00 | 0.00 | 88 | 1007.7 |
| 20260506144202 | 26 | 138 | 4.8 | 14.5 | 0.00 | 0.00 | 0.00 | 88 | 1007.8 |
| 20260506144103 | 26 | 127 | 3.2 | 14.5 | 0.00 | 0.00 | 0.00 | 88 | 1007.6 |
| 20260506144003 | 26 | 131 | 3.2 | 14.5 | 0.00 | 0.00 | 0.00 | 88 | 1007.6 |
| 20260506143902 | 26 | 118 | 6.4 | 14.5 | 0.00 | 0.00 | 0.00 | 88 | 1007.7 |
| 20260506143803 | 26 | 145 | 6.4 | 14.5 | 0.00 | 0.00 | 0.00 | 88 | 1007.6 |
| 20260506143702 | 26 | 147 | 3.2 | 11.3 | 0.00 | 0.00 | 0.00 | 88 | 1007.7 |
| 20260506143602 | 26 | 111 | 3.2 | 11.3 | 0.00 | 0.00 | 0.00 | 88 | 1007.7 |
| 20260506143504 | 26 | 130 | 4.8 | 11.3 | 0.00 | 0.00 | 0.00 | 88 | 1007.7 |
| 20260506143403 | 26 | 148 | 6.4 | 11.3 | 0.00 | 0.00 | 0.00 | 88 | 1007.7 |
| 20260506143302 | 26 | 107 | 3.2 | 11.3 | 0.00 | 0.00 | 0.00 | 88 | 1007.7 |
| 20260506143202 | 26 | 116 | 3.2 | 11.3 | 0.00 | 0.00 | 0.00 | 88 | 1007.7 |
| 20260506143104 | 26 | 103 | 6.4 | 14.5 | 0.00 | 0.00 | 0.00 | 88 | 1007.7 |
| 20260506143004 | 26 | 113 | 6.4 | 14.5 | 0.00 | 0.00 | 0.00 | 89 | 1007.7 |
| 20260506142903 | 26 | 141 | 1.6 | 14.5 | 0.00 | 0.00 | 0.00 | 90 | 1007.6 |
| 20260506142803 | 26 | 141 | 1.6 | 14.5 | 0.00 | 0.00 | 0.00 | 90 | 1007.7 |
| 20260506142703 | 26 | 141 | 1.6 | 14.5 | 0.00 | 0.00 | 0.00 | 90 | 1007.6 |
| 20260506142603 | 26 | 141 | 1.6 | 14.5 | 0.00 | 0.00 | 0.00 | 90 | 1007.6 |
| 20260506142503 | 26 | 141 | 1.6 | 14.5 | 0.00 | 0.00 | 0.00 | 90 | 1007.6 |
| 20260506142403 | 26 | 124 | 3.2 | 14.5 | 0.00 | 0.00 | 0.00 | 90 | 1007.6 |
| 20260506142305 | 26 | 140 | 6.4 | 14.5 | 0.00 | 0.00 | 0.00 | 90 | 1007.6 |
| 20260506142201 | 26 | 117 | 6.4 | 14.5 | 0.00 | 0.00 | 0.00 | 91 | 1007.7 |
| 20260506142103 | 26 | 86 | 4.8 | 8.0 | 0.00 | 0.00 | 0.00 | 91 | 1007.7 |
| 20260506142003 | 26 | 104 | 4.8 | 8.0 | 0.00 | 0.00 | 0.00 | 91 | 1007.8 |
| 20260506141904 | 26 | 104 | 4.8 | 8.0 | 0.00 | 0.00 | 0.00 | 91 | 1007.7 |
| 20260506141803 | 26 | 104 | 4.8 | 8.0 | 0.00 | 0.00 | 0.00 | 91 | 1007.7 |
| 20260506141638 | 26 | 118 | 3.2 | 8.0 | 0.00 | 0.00 | 0.00 | 91 | 1007.8 |
| 20260506141537 | 26 | 114 | 3.2 | 6.4 | 0.00 | 0.00 | 0.00 | 91 | 1007.7 |
| 20260506141436 | 26 | 114 | 3.2 | 6.4 | 0.00 | 0.00 | 0.00 | 91 | 1007.8 |
| 20260506141337 | 26 | 114 | 3.2 | 6.4 | 0.00 | 0.00 | 0.00 | 91 | 1007.8 |
| 20260506141237 | 26 | 90 | 4.8 | 6.4 | 0.00 | 0.00 | 0.00 | 91 | 1007.8 |
| 20260506141138 | 26 | 90 | 4.8 | 8.0 | 0.00 | 0.00 | 0.00 | 91 | 1007.8 |
| 20260506141037 | 26 | 87 | 4.8 | 8.0 | 0.00 | 0.00 | 0.00 | 91 | 1007.8 |
| 20260506140938 | 26 | 99 | 3.2 | 8.0 | 0.00 | 0.00 | 0.00 | 92 | 1007.8 |
| 20260506140837 | 26 | 162 | 4.8 | 8.0 | 0.00 | 0.00 | 0.00 | 92 | 1007.9 |
| 20260506140737 | 26 | 93 | 4.8 | 8.0 | 0.00 | 0.00 | 0.00 | 92 | 1007.8 |
| 20260506140638 | 25 | 125 | 3.2 | 8.0 | 0.00 | 0.00 | 0.00 | 92 | 1007.8 |
| 20260506140537 | 25 | 154 | 3.2 | 8.0 | 0.00 | 0.00 | 0.00 | 92 | 1007.9 |
| 20260506140436 | 25 | 134 | 3.2 | 8.0 | 0.00 | 0.00 | 0.00 | 92 | 1007.8 |
| 20260506140337 | 25 | 109 | 4.8 | 8.0 | 0.00 | 0.00 | 0.00 | 92 | 1007.9 |
| 20260506140237 | 25 | 114 | 4.8 | 8.0 | 0.00 | 0.00 | 0.00 | 92 | 1007.8 |
| 20260506140137 | 25 | 137 | 4.8 | 8.0 | 0.00 | 0.00 | 0.00 | 92 | 1007.8 |
| 20260506140038 | 25 | 104 | 4.8 | 8.0 | 0.00 | 0.00 | 0.00 | 92 | 1007.8 |
| 20260506135938 | 25 | 103 | 4.8 | 8.0 | 0.00 | 0.00 | 0.00 | 92 | 1007.8 |
| 20260506135837 | 25 | 104 | 4.8 | 8.0 | 0.00 | 0.00 | 0.00 | 92 | 1007.8 |
| 20260506135736 | 25 | 103 | 4.8 | 8.0 | 0.00 | 0.00 | 0.00 | 93 | 1007.8 |
| 20260506135636 | 25 | 83 | 6.4 | 8.0 | 0.00 | 0.00 | 0.00 | 92 | 1007.8 |
| 20260506135538 | 25 | 114 | 4.8 | 8.0 | 0.00 | 0.00 | 0.00 | 93 | 1007.8 |
| 20260506135437 | 25 | 102 | 4.8 | 8.0 | 0.00 | 0.00 | 0.00 | 93 | 1007.8 |
| 20260506135336 | 25 | 100 | 4.8 | 9.7 | 0.00 | 0.00 | 0.00 | 93 | 1007.9 |
| 20260506135238 | 25 | 100 | 3.2 | 9.7 | 0.00 | 0.00 | 0.00 | 93 | 1007.8 |
| 20260506135136 | 25 | 97 | 3.2 | 9.7 | 0.00 | 0.00 | 0.00 | 93 | 1007.8 |
| 20260506135036 | 25 | 104 | 4.8 | 9.7 | 0.00 | 0.00 | 0.00 | 93 | 1008.0 |
| 20260506134937 | 25 | 104 | 4.8 | 9.7 | 0.00 | 0.00 | 0.00 | 93 | 1008.0 |
| 20260506134836 | 25 | 109 | 4.8 | 9.7 | 0.00 | 0.00 | 0.00 | 93 | 1008.0 |
| 20260506134734 | 25 | 111 | 4.8 | 9.7 | 0.00 | 0.00 | 0.00 | 93 | 1007.9 |
| 20260506134633 | 25 | 113 | 4.8 | 9.7 | 0.00 | 0.00 | 0.00 | 93 | 1007.9 |
| 20260506134532 | 25 | 89 | 6.4 | 9.7 | 0.00 | 0.00 | 0.00 | 93 | 1007.9 |
| 20260506134431 | 25 | 110 | 6.4 | 9.7 | 0.00 | 0.00 | 0.00 | 93 | 1008.0 |
| 20260506134330 | 25 | 110 | 6.4 | 8.0 | 0.00 | 0.00 | 0.00 | 94 | 1007.9 |
| 20260506134233 | 25 | 87 | 6.4 | 8.0 | 0.00 | 0.00 | 0.00 | 94 | 1007.9 |
| 20260506134133 | 25 | 100 | 6.4 | 8.0 | 0.00 | 0.00 | 0.00 | 93 | 1007.8 |
| 20260506134030 | 25 | 125 | 6.4 | 8.0 | 0.00 | 0.00 | 0.00 | 94 | 1007.9 |
| 20260506133932 | 25 | 106 | 6.4 | 6.4 | 0.00 | 0.00 | 0.00 | 94 | 1007.9 |
| 20260506133833 | 25 | 103 | 3.2 | 6.4 | 0.00 | 0.00 | 0.00 | 94 | 1007.9 |
| 20260506133732 | 25 | 103 | 3.2 | 8.0 | 0.00 | 0.00 | 0.00 | 94 | 1007.9 |
| 20260506133632 | 25 | 103 | 3.2 | 8.0 | 0.00 | 0.00 | 0.00 | 94 | 1007.9 |
| 20260506133532 | 25 | 103 | 3.2 | 8.0 | 0.00 | 0.00 | 0.00 | 94 | 1008.0 |
| 20260506133431 | 25 | 103 | 3.2 | 8.0 | 0.00 | 0.00 | 0.00 | 94 | 1008.0 |
| 20260506133332 | 25 | 102 | 3.2 | 8.0 | 0.00 | 0.00 | 0.00 | 94 | 1008.0 |
| 20260506133232 | 25 | 103 | 3.2 | 8.0 | 0.00 | 0.00 | 0.00 | 94 | 1008.0 |
| 20260506133131 | 25 | 103 | 4.8 | 8.0 | 0.00 | 0.00 | 0.00 | 94 | 1008.0 |
| 20260506133032 | 25 | 116 | 4.8 | 8.0 | 0.00 | 0.00 | 0.00 | 94 | 1008.0 |
| 20260506132930 | 25 | 144 | 4.8 | 8.0 | 0.00 | 0.00 | 0.00 | 94 | 1008.0 |
| 20260506132833 | 25 | 137 | 6.4 | 8.0 | 0.00 | 0.00 | 0.00 | 94 | 1008.0 |
| 20260506132731 | 25 | 99 | 4.8 | 8.0 | 0.00 | 0.00 | 0.00 | 94 | 1008.1 |
| 20260506132632 | 25 | 125 | 4.8 | 8.0 | 0.00 | 0.00 | 0.00 | 94 | 1008.1 |
| 20260506132533 | 25 | 123 | 4.8 | 8.0 | 0.00 | 0.00 | 0.00 | 94 | 1008.1 |
| 20260506132434 | 25 | 96 | 3.2 | 6.4 | 0.00 | 0.00 | 0.00 | 94 | 1008.1 |
| 20260506132330 | 25 | 92 | 3.2 | 6.4 | 0.00 | 0.00 | 0.00 | 94 | 1008.2 |
| 20260506132231 | 25 | 120 | 1.6 | 6.4 | 0.00 | 0.00 | 0.00 | 94 | 1008.1 |
| 20260506132131 | 25 | 117 | 1.6 | 6.4 | 0.00 | 0.00 | 0.00 | 94 | 1008.1 |
| 20260506132031 | 25 | 117 | 3.2 | 6.4 | 0.00 | 0.00 | 0.00 | 94 | 1008.0 |
| 20260506131931 | 25 | 117 | 3.2 | 6.4 | 0.00 | 0.00 | 0.00 | 94 | 1008.1 |
| 20260506131832 | 25 | 113 | 3.2 | 6.4 | 0.00 | 0.00 | 0.00 | 94 | 1008.1 |
| 20260506131731 | 25 | 92 | 1.6 | 6.4 | 0.00 | 0.00 | 0.00 | 94 | 1008.1 |
| 20260506131632 | 25 | 92 | 3.2 | 8.0 | 0.00 | 0.00 | 0.00 | 94 | 1008.1 |
| 20260506131531 | 25 | 141 | 3.2 | 8.0 | 0.00 | 0.00 | 0.00 | 94 | 1008.1 |
| 20260506131431 | 25 | 106 | 3.2 | 8.0 | 0.00 | 0.00 | 0.00 | 94 | 1008.1 |
| 20260506131330 | 25 | 133 | 3.2 | 8.0 | 0.00 | 0.00 | 0.00 | 95 | 1008.1 |
| 20260506131231 | 25 | 103 | 3.2 | 8.0 | 0.00 | 0.00 | 0.00 | 94 | 1008.0 |
| 20260506131132 | 25 | 106 | 3.2 | 8.0 | 0.00 | 0.00 | 0.00 | 95 | 1008.1 |
| 20260506131032 | 25 | 130 | 3.2 | 8.0 | 0.00 | 0.00 | 0.00 | 95 | 1008.1 |
| 20260506130931 | 25 | 103 | 3.2 | 8.0 | 0.00 | 0.00 | 0.00 | 95 | 1008.0 |
| 20260506130831 | 25 | 99 | 3.2 | 8.0 | 0.00 | 0.00 | 0.00 | 95 | 1008.0 |
| 20260506130732 | 24 | 130 | 3.2 | 8.0 | 0.00 | 0.00 | 0.00 | 95 | 1008.1 |
| 20260506130632 | 24 | 124 | 3.2 | 6.4 | 0.00 | 0.00 | 0.00 | 95 | 1008.1 |
| 20260506130531 | 24 | 121 | 3.2 | 6.4 | 0.00 | 0.00 | 0.00 | 95 | 1008.0 |
| 20260506130431 | 24 | 137 | 3.2 | 6.4 | 0.00 | 0.00 | 0.00 | 95 | 1008.0 |
| 20260506130334 | 24 | 138 | 3.2 | 6.4 | 0.00 | 0.00 | 0.00 | 95 | 1008.1 |
| 20260506130233 | 24 | 111 | 3.2 | 6.4 | 0.00 | 0.00 | 0.00 | 95 | 1008.0 |
| 20260506130130 | 24 | 104 | 3.2 | 6.4 | 0.00 | 0.00 | 0.00 | 95 | 1008.0 |
| 20260506130028 | 24 | 128 | 1.6 | 6.4 | 0.00 | 0.00 | 0.00 | 95 | 1008.0 |
| 20260506125925 | 24 | 109 | 1.6 | 6.4 | 0.00 | 0.00 | 0.00 | 95 | 1007.9 |
| 20260506125822 | 24 | 109 | 3.2 | 6.4 | 0.00 | 0.00 | 0.00 | 95 | 1008.0 |
| 20260506125722 | 24 | 111 | 3.2 | 6.4 | 0.00 | 0.00 | 0.00 | 95 | 1008.0 |
| 20260506125620 | 24 | 113 | 3.2 | 6.4 | 0.00 | 0.00 | 0.00 | 95 | 1008.0 |
| 20260506125518 | 24 | 113 | 3.2 | 6.4 | 0.00 | 0.00 | 0.00 | 95 | 1008.0 |
| 20260506125418 | 24 | 110 | 3.2 | 6.4 | 0.00 | 0.00 | 0.00 | 95 | 1008.0 |
| 20260506125314 | 24 | 162 | 3.2 | 6.4 | 0.00 | 0.00 | 0.00 | 95 | 1008.0 |
| 20260506125213 | 24 | 134 | 1.6 | 6.4 | 0.00 | 0.00 | 0.00 | 95 | 1007.9 |
| 20260506125112 | 24 | 125 | 1.6 | 6.4 | 0.00 | 0.00 | 0.00 | 95 | 1008.0 |
| 20260506125011 | 24 | 124 | 1.6 | 6.4 | 0.00 | 0.00 | 0.00 | 95 | 1008.0 |
| 20260506124909 | 24 | 127 | 1.6 | 6.4 | 0.00 | 0.00 | 0.00 | 95 | 1008.0 |
| 20260506124805 | 24 | 125 | 3.2 | 6.4 | 0.00 | 0.00 | 0.00 | 95 | 1008.0 |
| 20260506124703 | 24 | 141 | 1.6 | 6.4 | 0.00 | 0.00 | 0.00 | 95 | 1008.0 |
| 20260506124603 | 24 | 137 | 1.6 | 6.4 | 0.00 | 0.00 | 0.00 | 95 | 1008.0 |
| 20260506124505 | 24 | 137 | 3.2 | 6.4 | 0.00 | 0.00 | 0.00 | 95 | 1008.0 |
| 20260506124402 | 24 | 118 | 3.2 | 6.4 | 0.00 | 0.00 | 0.00 | 95 | 1008.0 |
| 20260506124303 | 24 | 149 | 3.2 | 6.4 | 0.00 | 0.00 | 0.00 | 95 | 1008.0 |
| 20260506124201 | 24 | 117 | 3.2 | 6.4 | 0.00 | 0.00 | 0.00 | 95 | 1008.0 |
| 20260506124103 | 24 | 157 | 3.2 | 6.4 | 0.00 | 0.00 | 0.00 | 95 | 1008.1 |
| 20260506124002 | 24 | 147 | 3.2 | 6.4 | 0.00 | 0.00 | 0.00 | 95 | 1007.9 |
| 20260506123903 | 24 | 120 | 3.2 | 6.4 | 0.00 | 0.00 | 0.00 | 95 | 1008.0 |
| 20260506123803 | 24 | 142 | 1.6 | 6.4 | 0.00 | 0.00 | 0.00 | 95 | 1008.0 |
| 20260506123702 | 24 | 142 | 3.2 | 6.4 | 0.00 | 0.00 | 0.00 | 95 | 1007.9 |
| 20260506123601 | 24 | 144 | 3.2 | 6.4 | 0.00 | 0.00 | 0.00 | 95 | 1007.9 |
| 20260506123501 | 24 | 140 | 3.2 | 6.4 | 0.00 | 0.00 | 0.00 | 95 | 1007.9 |
| 20260506123403 | 24 | 120 | 3.2 | 6.4 | 0.00 | 0.00 | 0.00 | 95 | 1007.9 |
| 20260506123302 | 24 | 110 | 3.2 | 6.4 | 0.00 | 0.00 | 0.00 | 95 | 1008.0 |
| 20260506123202 | 24 | 109 | 3.2 | 6.4 | 0.00 | 0.00 | 0.00 | 95 | 1007.9 |
| 20260506123104 | 24 | 149 | 3.2 | 6.4 | 0.00 | 0.00 | 0.00 | 95 | 1007.9 |
| 20260506123003 | 24 | 106 | 3.2 | 6.4 | 0.00 | 0.00 | 0.00 | 95 | 1007.9 |
| 20260506122901 | 24 | 124 | 3.2 | 6.4 | 0.00 | 0.00 | 0.00 | 95 | 1007.9 |
| 20260506122802 | 24 | 130 | 3.2 | 6.4 | 0.00 | 0.00 | 0.00 | 95 | 1007.8 |
| 20260506122703 | 24 | 130 | 1.6 | 4.8 | 0.00 | 0.00 | 0.00 | 95 | 1007.8 |
| 20260506122603 | 24 | 135 | 1.6 | 4.8 | 0.00 | 0.00 | 0.00 | 95 | 1007.8 |
| 20260506122502 | 24 | 135 | 1.6 | 4.8 | 0.00 | 0.00 | 0.00 | 95 | 1007.8 |
| 20260506122403 | 24 | 134 | 0.0 | 3.2 | 0.00 | 0.00 | 0.00 | 95 | 1007.9 |
| 20260506122301 | 24 | 130 | 0.0 | 0.0 | 0.00 | 0.00 | 0.00 | 95 | 1007.9 |
| 20260506122202 | 24 | 130 | 0.0 | 0.0 | 0.00 | 0.00 | 0.00 | 95 | 1007.9 |
| 20260506122104 | 24 | 130 | 0.0 | 3.2 | 0.00 | 0.00 | 0.00 | 95 | 1007.9 |
| 20260506122004 | 24 | 130 | 0.0 | 3.2 | 0.00 | 0.00 | 0.00 | 95 | 1007.9 |
| 20260506121902 | 24 | 130 | 0.0 | 3.2 | 0.00 | 0.00 | 0.00 | 95 | 1007.9 |
| 20260506121804 | 24 | 130 | 0.0 | 3.2 | 0.00 | 0.00 | 0.00 | 95 | 1007.9 |
| 20260506121702 | 24 | 131 | 0.0 | 3.2 | 0.00 | 0.00 | 0.00 | 95 | 1007.8 |
| 20260506121603 | 24 | 131 | 0.0 | 3.2 | 0.00 | 0.00 | 0.00 | 95 | 1007.8 |
| 20260506121502 | 24 | 131 | 0.0 | 4.8 | 0.00 | 0.00 | 0.00 | 95 | 1007.8 |
| 20260506121403 | 24 | 131 | 0.0 | 4.8 | 0.00 | 0.00 | 0.00 | 95 | 1007.7 |
| 20260506121302 | 24 | 131 | 0.0 | 4.8 | 0.00 | 0.00 | 0.00 | 95 | 1007.7 |
| 20260506121202 | 24 | 131 | 1.6 | 4.8 | 0.00 | 0.00 | 0.00 | 95 | 1007.7 |
| 20260506121104 | 24 | 131 | 1.6 | 4.8 | 0.00 | 0.00 | 0.00 | 95 | 1007.7 |
| 20260506121004 | 24 | 131 | 1.6 | 4.8 | 0.00 | 0.00 | 0.00 | 95 | 1007.7 |
| 20260506120902 | 24 | 131 | 1.6 | 4.8 | 0.00 | 0.00 | 0.00 | 95 | 1007.7 |
| 20260506120802 | 24 | 133 | 0.0 | 6.4 | 0.00 | 0.00 | 0.00 | 95 | 1007.7 |
| 20260506120702 | 24 | 134 | 1.6 | 6.4 | 0.00 | 0.00 | 0.00 | 95 | 1007.7 |
| 20260506120604 | 24 | 134 | 3.2 | 6.4 | 0.00 | 0.00 | 0.00 | 95 | 1007.7 |
| 20260506120503 | 24 | 133 | 1.6 | 6.4 | 0.00 | 0.00 | 0.00 | 95 | 1007.7 |
| 20260506120404 | 24 | 134 | 1.6 | 6.4 | 0.00 | 0.00 | 0.00 | 95 | 1007.6 |
| 20260506120303 | 24 | 133 | 1.6 | 6.4 | 0.00 | 0.00 | 0.00 | 95 | 1007.6 |
| 20260506120202 | 24 | 140 | 1.6 | 6.4 | 0.00 | 0.00 | 0.00 | 95 | 1007.6 |
| 20260506120003 | 24 | 166 | 3.2 | 6.4 | 0.00 | 0.00 | 0.00 | 95 | 1007.5 |
| 20260506115903 | 24 | 172 | 3.2 | 6.4 | 0.00 | 0.00 | 0.00 | 95 | 1007.5 |
| 20260506115803 | 24 | 173 | 3.2 | 6.4 | 0.00 | 0.00 | 0.00 | 95 | 1007.5 |
| 20260506115703 | 24 | 100 | 3.2 | 6.4 | 0.00 | 0.00 | 0.00 | 95 | 1007.5 |
| 20260506115602 | 24 | 121 | 3.2 | 6.4 | 0.00 | 0.00 | 0.00 | 95 | 1007.4 |
| 20260506115504 | 24 | 173 | 1.6 | 6.4 | 0.00 | 0.00 | 0.00 | 95 | 1007.5 |
| 20260506115404 | 23 | 176 | 3.2 | 6.4 | 0.00 | 0.00 | 0.00 | 95 | 1007.5 |
| 20260506115306 | 23 | 180 | 1.6 | 6.4 | 0.00 | 0.00 | 0.00 | 95 | 1007.4 |
| 20260506115202 | 23 | 131 | 1.6 | 6.4 | 0.00 | 0.00 | 0.00 | 95 | 1007.5 |
| 20260506115104 | 23 | 131 | 3.2 | 6.4 | 0.00 | 0.00 | 0.00 | 95 | 1007.5 |
| 20260506115003 | 23 | 131 | 3.2 | 6.4 | 0.00 | 0.00 | 0.00 | 95 | 1007.4 |
| 20260506114902 | 23 | 107 | 1.6 | 6.4 | 0.00 | 0.00 | 0.00 | 95 | 1007.4 |
| 20260506114802 | 23 | 134 | 1.6 | 6.4 | 0.00 | 0.00 | 0.00 | 95 | 1007.4 |
| 20260506114704 | 23 | 131 | 3.2 | 6.4 | 0.00 | 0.00 | 0.00 | 95 | 1007.4 |
| 20260506114602 | 23 | 138 | 3.2 | 6.4 | 0.00 | 0.00 | 0.00 | 95 | 1007.3 |
| 20260506114504 | 23 | 166 | 3.2 | 6.4 | 0.00 | 0.00 | 0.00 | 95 | 1007.3 |
| 20260506114402 | 23 | 168 | 3.2 | 6.4 | 0.00 | 0.00 | 0.00 | 96 | 1007.3 |
| 20260506114302 | 23 | 125 | 1.6 | 6.4 | 0.00 | 0.00 | 0.00 | 95 | 1007.2 |
| 20260506114202 | 23 | 137 | 3.2 | 6.4 | 0.00 | 0.00 | 0.00 | 95 | 1007.3 |
| 20260506114102 | 23 | 137 | 3.2 | 6.4 | 0.00 | 0.00 | 0.00 | 95 | 1007.3 |
| 20260506114005 | 23 | 173 | 3.2 | 8.0 | 0.00 | 0.00 | 0.00 | 95 | 1007.2 |
| 20260506113902 | 23 | 168 | 3.2 | 8.0 | 0.00 | 0.00 | 0.00 | 95 | 1007.2 |
| 20260506113802 | 23 | 144 | 3.2 | 8.0 | 0.00 | 0.00 | 0.00 | 95 | 1007.2 |
| 20260506113703 | 23 | 151 | 3.2 | 8.0 | 0.00 | 0.00 | 0.00 | 95 | 1007.2 |
| 20260506113603 | 23 | 186 | 3.2 | 8.0 | 0.00 | 0.00 | 0.00 | 95 | 1007.2 |
| 20260506113502 | 23 | 152 | 3.2 | 8.0 | 0.00 | 0.00 | 0.00 | 95 | 1007.2 |
| 20260506113402 | 23 | 182 | 3.2 | 8.0 | 0.00 | 0.00 | 0.00 | 95 | 1007.2 |
| 20260506113303 | 23 | 173 | 3.2 | 8.0 | 0.00 | 0.00 | 0.00 | 95 | 1007.1 |
| 20260506113202 | 23 | 151 | 4.8 | 8.0 | 0.00 | 0.00 | 0.00 | 96 | 1007.1 |
| 20260506113103 | 23 | 172 | 3.2 | 8.0 | 0.00 | 0.00 | 0.00 | 95 | 1007.1 |
| 20260506113004 | 23 | 149 | 1.6 | 6.4 | 0.00 | 0.00 | 0.00 | 95 | 1007.0 |
| 20260506112902 | 23 | 148 | 1.6 | 6.4 | 0.00 | 0.00 | 0.00 | 95 | 1007.1 |
| 20260506112802 | 23 | 149 | 3.2 | 6.4 | 0.00 | 0.00 | 0.00 | 95 | 1007.1 |
| 20260506112702 | 23 | 152 | 3.2 | 6.4 | 0.00 | 0.00 | 0.00 | 95 | 1007.1 |
| 20260506112604 | 23 | 148 | 3.2 | 6.4 | 0.00 | 0.00 | 0.00 | 95 | 1007.0 |
| 20260506112502 | 23 | 148 | 1.6 | 6.4 | 0.00 | 0.00 | 0.00 | 95 | 1007.0 |
| 20260506112402 | 23 | 147 | 1.6 | 6.4 | 0.00 | 0.00 | 0.00 | 95 | 1007.0 |
| 20260506112306 | 23 | 147 | 0.0 | 6.4 | 0.00 | 0.00 | 0.00 | 95 | 1007.0 |
| 20260506112203 | 23 | 161 | 1.6 | 6.4 | 0.00 | 0.00 | 0.00 | 95 | 1006.9 |
| 20260506112103 | 23 | 172 | 3.2 | 6.4 | 0.00 | 0.00 | 0.00 | 95 | 1006.9 |
| 20260506112003 | 23 | 135 | 3.2 | 4.8 | 0.00 | 0.00 | 0.00 | 95 | 1006.9 |
| 20260506111903 | 23 | 135 | 3.2 | 4.8 | 0.00 | 0.00 | 0.00 | 95 | 1006.7 |
| 20260506111802 | 23 | 102 | 1.6 | 4.8 | 0.00 | 0.00 | 0.00 | 95 | 1006.7 |
| 20260506111702 | 23 | 100 | 1.6 | 4.8 | 0.00 | 0.00 | 0.00 | 95 | 1006.8 |
| 20260506111603 | 23 | 144 | 1.6 | 4.8 | 0.00 | 0.00 | 0.00 | 95 | 1006.8 |
| 20260506111503 | 23 | 142 | 1.6 | 4.8 | 0.00 | 0.00 | 0.00 | 95 | 1006.7 |
| 20260506111404 | 23 | 142 | 1.6 | 4.8 | 0.00 | 0.00 | 0.00 | 95 | 1006.8 |
| 20260506111303 | 23 | 142 | 0.0 | 4.8 | 0.00 | 0.00 | 0.00 | 95 | 1006.8 |
| 20260506111202 | 23 | 144 | 1.6 | 4.8 | 0.00 | 0.00 | 0.00 | 95 | 1006.8 |
| 20260506111102 | 23 | 155 | 1.6 | 4.8 | 0.00 | 0.00 | 0.00 | 95 | 1006.8 |
| 20260506111003 | 23 | 148 | 1.6 | 4.8 | 0.00 | 0.00 | 0.00 | 95 | 1006.8 |
| 20260506110904 | 23 | 127 | 0.0 | 4.8 | 0.00 | 0.00 | 0.00 | 95 | 1006.8 |
| 20260506110803 | 23 | 127 | 0.0 | 4.8 | 0.00 | 0.00 | 0.00 | 95 | 1006.7 |
| 20260506110702 | 23 | 140 | 0.0 | 4.8 | 0.00 | 0.00 | 0.00 | 95 | 1006.8 |
| 20260506110603 | 23 | 140 | 0.0 | 4.8 | 0.00 | 0.00 | 0.00 | 95 | 1006.8 |
| 20260506110504 | 23 | 131 | 1.6 | 4.8 | 0.00 | 0.00 | 0.00 | 95 | 1006.7 |
| 20260506110402 | 23 | 131 | 1.6 | 4.8 | 0.00 | 0.00 | 0.00 | 95 | 1006.7 |
| 20260506110302 | 23 | 130 | 1.6 | 4.8 | 0.00 | 0.00 | 0.00 | 95 | 1006.7 |
| 20260506110203 | 23 | 144 | 1.6 | 6.4 | 0.00 | 0.00 | 0.00 | 95 | 1006.7 |
| 20260506110002 | 23 | 135 | 3.2 | 6.4 | 0.00 | 0.00 | 0.00 | 95 | 1006.7 |
| 20260506105903 | 23 | 144 | 3.2 | 6.4 | 0.00 | 0.00 | 0.00 | 95 | 1006.6 |
| 20260506105802 | 23 | 147 | 1.6 | 6.4 | 0.00 | 0.00 | 0.00 | 95 | 1006.7 |
| 20260506105703 | 23 | 145 | 1.6 | 6.4 | 0.00 | 0.00 | 0.00 | 95 | 1006.6 |
| 20260506105603 | 23 | 145 | 1.6 | 6.4 | 0.00 | 0.00 | 0.00 | 95 | 1006.6 |
| 20260506105504 | 23 | 147 | 1.6 | 6.4 | 0.00 | 0.00 | 0.00 | 94 | 1006.6 |
| 20260506105402 | 23 | 144 | 3.2 | 6.4 | 0.00 | 0.00 | 0.00 | 95 | 1006.7 |
| 20260506105304 | 23 | 145 | 3.2 | 6.4 | 0.00 | 0.00 | 0.00 | 94 | 1006.7 |
| 20260506105203 | 23 | 145 | 3.2 | 6.4 | 0.00 | 0.00 | 0.00 | 95 | 1006.7 |
| 20260506105102 | 23 | 147 | 3.2 | 6.4 | 0.00 | 0.00 | 0.00 | 95 | 1006.7 |
| 20260506105003 | 23 | 162 | 1.6 | 6.4 | 0.00 | 0.00 | 0.00 | 95 | 1006.7 |
| 20260506104904 | 23 | 164 | 3.2 | 6.4 | 0.00 | 0.00 | 0.00 | 95 | 1006.8 |
| 20260506104802 | 23 | 144 | 3.2 | 6.4 | 0.00 | 0.00 | 0.00 | 95 | 1006.7 |
| 20260506104702 | 23 | 134 | 3.2 | 6.4 | 0.00 | 0.00 | 0.00 | 95 | 1006.7 |
| 20260506104601 | 23 | 142 | 3.2 | 6.4 | 0.00 | 0.00 | 0.00 | 95 | 1006.7 |
| 20260506104504 | 23 | 142 | 3.2 | 6.4 | 0.00 | 0.00 | 0.00 | 95 | 1006.6 |
| 20260506104404 | 23 | 155 | 3.2 | 6.4 | 0.00 | 0.00 | 0.00 | 95 | 1006.7 |
| 20260506104302 | 23 | 137 | 3.2 | 8.0 | 0.00 | 0.00 | 0.00 | 95 | 1006.7 |
| 20260506104203 | 23 | 148 | 3.2 | 8.0 | 0.00 | 0.00 | 0.00 | 95 | 1006.7 |
| 20260506104102 | 23 | 151 | 3.2 | 8.0 | 0.00 | 0.00 | 0.00 | 94 | 1006.7 |
| 20260506104002 | 23 | 161 | 4.8 | 8.0 | 0.00 | 0.00 | 0.00 | 94 | 1006.7 |
| 20260506103900 | 23 | 154 | 3.2 | 8.0 | 0.00 | 0.00 | 0.00 | 94 | 1006.7 |
| 20260506103800 | 23 | 162 | 1.6 | 8.0 | 0.00 | 0.00 | 0.00 | 94 | 1006.7 |
| 20260506103657 | 23 | 138 | 3.2 | 8.0 | 0.00 | 0.00 | 0.00 | 94 | 1006.7 |
| 20260506103557 | 23 | 178 | 3.2 | 8.0 | 0.00 | 0.00 | 0.00 | 94 | 1006.7 |
| 20260506103454 | 23 | 159 | 3.2 | 8.0 | 0.00 | 0.00 | 0.00 | 94 | 1006.7 |
| 20260506103353 | 23 | 182 | 3.2 | 8.0 | 0.00 | 0.00 | 0.00 | 94 | 1006.7 |
| 20260506103251 | 23 | 130 | 1.6 | 8.0 | 0.00 | 0.00 | 0.00 | 94 | 1006.6 |
| 20260506103151 | 23 | 140 | 0.0 | 8.0 | 0.00 | 0.00 | 0.00 | 94 | 1006.7 |
| 20260506103049 | 23 | 199 | 1.6 | 8.0 | 0.00 | 0.00 | 0.00 | 94 | 1006.7 |
| 20260506102945 | 23 | 199 | 3.2 | 8.0 | 0.00 | 0.00 | 0.00 | 94 | 1006.7 |
| 20260506102845 | 23 | 202 | 3.2 | 8.0 | 0.00 | 0.00 | 0.00 | 94 | 1006.6 |
| 20260506102742 | 23 | 125 | 3.2 | 8.0 | 0.00 | 0.00 | 0.00 | 94 | 1006.7 |
| 20260506102641 | 23 | 186 | 3.2 | 8.0 | 0.00 | 0.00 | 0.00 | 94 | 1006.7 |
| 20260506102539 | 23 | 140 | 3.2 | 8.0 | 0.00 | 0.00 | 0.00 | 94 | 1006.6 |
| 20260506102439 | 23 | 155 | 3.2 | 8.0 | 0.00 | 0.00 | 0.00 | 94 | 1006.6 |
| 20260506102335 | 23 | 183 | 3.2 | 8.0 | 0.00 | 0.00 | 0.00 | 94 | 1006.6 |
| 20260506102235 | 23 | 144 | 3.2 | 8.0 | 0.00 | 0.00 | 0.00 | 94 | 1006.5 |
| 20260506102133 | 23 | 171 | 3.2 | 9.7 | 0.00 | 0.00 | 0.00 | 94 | 1006.6 |
| 20260506102034 | 23 | 189 | 3.2 | 9.7 | 0.00 | 0.00 | 0.00 | 94 | 1006.6 |
| 20260506101931 | 23 | 161 | 3.2 | 9.7 | 0.00 | 0.00 | 0.00 | 94 | 1006.6 |
| 20260506101831 | 23 | 173 | 3.2 | 9.7 | 0.00 | 0.00 | 0.00 | 94 | 1006.6 |
| 20260506101732 | 23 | 121 | 4.8 | 9.7 | 0.00 | 0.00 | 0.00 | 94 | 1006.7 |
| 20260506101632 | 23 | 79 | 3.2 | 9.7 | 0.00 | 0.00 | 0.00 | 94 | 1006.7 |
| 20260506101530 | 23 | 159 | 3.2 | 9.7 | 0.00 | 0.00 | 0.00 | 94 | 1006.7 |
| 20260506101432 | 23 | 134 | 4.8 | 9.7 | 0.00 | 0.00 | 0.00 | 94 | 1006.7 |
| 20260506101332 | 23 | 214 | 3.2 | 9.7 | 0.00 | 0.00 | 0.00 | 94 | 1006.6 |
| 20260506101232 | 23 | 148 | 4.8 | 9.7 | 0.00 | 0.00 | 0.00 | 94 | 1006.6 |
| 20260506101131 | 23 | 161 | 4.8 | 9.7 | 0.00 | 0.00 | 0.00 | 94 | 1006.7 |
| 20260506101032 | 23 | 176 | 3.2 | 9.7 | 0.00 | 0.00 | 0.00 | 94 | 1006.6 |
| 20260506100930 | 23 | 162 | 4.8 | 9.7 | 0.00 | 0.00 | 0.00 | 94 | 1006.7 |
| 20260506100831 | 23 | 207 | 4.8 | 9.7 | 0.00 | 0.00 | 0.00 | 94 | 1006.6 |
| 20260506100732 | 23 | 141 | 4.8 | 9.7 | 0.00 | 0.00 | 0.00 | 94 | 1006.7 |
| 20260506100632 | 23 | 171 | 4.8 | 9.7 | 0.00 | 0.00 | 0.00 | 94 | 1006.7 |
| 20260506100532 | 23 | 142 | 4.8 | 9.7 | 0.00 | 0.00 | 0.00 | 94 | 1006.7 |
| 20260506100432 | 23 | 183 | 6.4 | 9.7 | 0.00 | 0.00 | 0.00 | 94 | 1006.6 |
| 20260506100332 | 23 | 199 | 6.4 | 9.7 | 0.00 | 0.00 | 0.00 | 94 | 1006.6 |
| 20260506100231 | 23 | 157 | 4.8 | 9.7 | 0.00 | 0.00 | 0.00 | 94 | 1006.5 |
| 20260506100132 | 23 | 182 | 4.8 | 14.5 | 0.00 | 0.00 | 0.00 | 94 | 1006.5 |
| 20260506100032 | 23 | 137 | 4.8 | 16.1 | 0.00 | 0.00 | 0.00 | 94 | 1006.5 |
| 20260506095931 | 24 | 162 | 4.8 | 16.1 | 0.00 | 0.00 | 0.00 | 94 | 1006.6 |
| 20260506095830 | 23 | 138 | 4.8 | 16.1 | 0.00 | 0.00 | 0.00 | 94 | 1006.5 |
| 20260506095732 | 24 | 124 | 3.2 | 16.1 | 0.00 | 0.00 | 0.00 | 94 | 1006.5 |
| 20260506095633 | 24 | 175 | 3.2 | 16.1 | 0.00 | 0.00 | 0.00 | 94 | 1006.5 |
| 20260506095531 | 24 | 157 | 4.8 | 16.1 | 0.00 | 0.00 | 0.00 | 94 | 1006.4 |
| 20260506095431 | 24 | 197 | 3.2 | 16.1 | 0.00 | 0.00 | 0.00 | 94 | 1006.4 |
| 20260506095333 | 24 | 178 | 6.4 | 16.1 | 0.00 | 0.00 | 0.00 | 94 | 1006.4 |
| 20260506095232 | 24 | 130 | 6.4 | 16.1 | 0.00 | 0.00 | 0.00 | 94 | 1006.4 |
| 20260506095131 | 24 | 116 | 4.8 | 19.3 | 0.00 | 0.00 | 0.00 | 93 | 1006.3 |
| 20260506095032 | 24 | 171 | 4.8 | 19.3 | 0.00 | 0.00 | 0.00 | 94 | 1006.3 |
| 20260506094932 | 24 | 131 | 6.4 | 19.3 | 0.00 | 0.00 | 0.00 | 94 | 1006.3 |
| 20260506094832 | 24 | 127 | 8.0 | 19.3 | 0.00 | 0.00 | 0.00 | 94 | 1006.2 |
| 20260506094731 | 24 | 168 | 6.4 | 19.3 | 0.00 | 0.00 | 0.00 | 94 | 1006.2 |
| 20260506094632 | 24 | 190 | 6.4 | 19.3 | 0.00 | 0.00 | 0.00 | 94 | 1006.2 |
| 20260506094531 | 24 | 235 | 6.4 | 19.3 | 0.00 | 0.00 | 0.00 | 94 | 1006.2 |
| 20260506094432 | 24 | 212 | 6.4 | 19.3 | 0.00 | 0.00 | 0.00 | 94 | 1006.2 |
| 20260506094332 | 24 | 168 | 8.0 | 19.3 | 0.00 | 0.00 | 0.00 | 94 | 1006.2 |
| 20260506094232 | 24 | 165 | 8.0 | 19.3 | 0.00 | 0.00 | 0.00 | 94 | 1006.2 |
| 20260506094131 | 24 | 157 | 6.4 | 17.7 | 0.00 | 0.00 | 0.00 | 94 | 1006.2 |
| 20260506094032 | 24 | 159 | 6.4 | 17.7 | 0.00 | 0.00 | 0.00 | 93 | 1006.2 |
| 20260506093932 | 24 | 133 | 8.0 | 17.7 | 0.00 | 0.00 | 0.00 | 93 | 1006.2 |
| 20260506093831 | 24 | 127 | 8.0 | 17.7 | 0.00 | 0.00 | 0.00 | 93 | 1006.2 |
| 20260506093731 | 24 | 168 | 6.4 | 16.1 | 0.00 | 0.00 | 0.00 | 93 | 1006.2 |
| 20260506093631 | 24 | 157 | 4.8 | 16.1 | 0.00 | 0.00 | 0.00 | 93 | 1006.2 |
| 20260506093532 | 24 | 213 | 6.4 | 17.7 | 0.00 | 0.00 | 0.00 | 93 | 1006.3 |
| 20260506093430 | 24 | 131 | 6.4 | 19.3 | 0.00 | 0.00 | 0.00 | 93 | 1006.3 |
| 20260506093331 | 24 | 149 | 4.8 | 19.3 | 0.00 | 0.00 | 0.00 | 93 | 1006.3 |
| 20260506093231 | 24 | 152 | 6.4 | 19.3 | 0.00 | 0.00 | 0.00 | 93 | 1006.3 |
| 20260506093130 | 24 | 188 | 8.0 | 19.3 | 0.00 | 0.00 | 0.00 | 93 | 1006.3 |
| 20260506093030 | 24 | 109 | 8.0 | 19.3 | 0.00 | 0.00 | 0.00 | 93 | 1006.3 |
| 20260506092930 | 24 | 142 | 6.4 | 19.3 | 0.00 | 0.00 | 0.00 | 93 | 1006.3 |
| 20260506092832 | 24 | 190 | 6.4 | 20.9 | 0.00 | 0.00 | 0.00 | 93 | 1006.3 |
| 20260506092730 | 24 | 168 | 9.7 | 20.9 | 0.00 | 0.00 | 0.00 | 93 | 1006.3 |
| 20260506092630 | 24 | 147 | 9.7 | 20.9 | 0.00 | 0.00 | 0.00 | 93 | 1006.4 |
| 20260506092532 | 24 | 179 | 8.0 | 20.9 | 0.00 | 0.00 | 0.00 | 93 | 1006.4 |
| 20260506092431 | 24 | 214 | 6.4 | 20.9 | 0.00 | 0.00 | 0.00 | 93 | 1006.4 |
| 20260506092331 | 24 | 183 | 8.0 | 20.9 | 0.00 | 0.00 | 0.00 | 93 | 1006.3 |
| 20260506092232 | 24 | 106 | 8.0 | 20.9 | 0.00 | 0.00 | 0.00 | 93 | 1006.4 |
| 20260506092132 | 24 | 138 | 8.0 | 20.9 | 0.00 | 0.00 | 0.00 | 93 | 1006.3 |
| 20260506092029 | 24 | 192 | 9.7 | 20.9 | 0.00 | 0.00 | 0.00 | 93 | 1006.3 |
| 20260506091930 | 24 | 134 | 9.7 | 20.9 | 0.00 | 0.00 | 0.00 | 93 | 1006.3 |
| 20260506091831 | 24 | 152 | 8.0 | 17.7 | 0.00 | 0.00 | 0.00 | 93 | 1006.3 |
| 20260506091731 | 24 | 165 | 9.7 | 17.7 | 0.00 | 0.00 | 0.00 | 93 | 1006.3 |
| 20260506091632 | 24 | 155 | 8.0 | 17.7 | 0.00 | 0.00 | 0.00 | 93 | 1006.3 |
| 20260506091532 | 24 | 185 | 6.4 | 16.1 | 0.00 | 0.00 | 0.00 | 93 | 1006.4 |
| 20260506091431 | 24 | 199 | 6.4 | 16.1 | 0.00 | 0.00 | 0.00 | 93 | 1006.4 |
| 20260506091329 | 24 | 99 | 6.4 | 17.7 | 0.00 | 0.00 | 0.00 | 93 | 1006.5 |
| 20260506091229 | 24 | 209 | 8.0 | 19.3 | 0.00 | 0.00 | 0.00 | 92 | 1006.4 |
| 20260506091131 | 24 | 152 | 8.0 | 19.3 | 0.00 | 0.00 | 0.00 | 92 | 1006.5 |
| 20260506091029 | 24 | 92 | 4.8 | 19.3 | 0.00 | 0.00 | 0.00 | 92 | 1006.5 |
| 20260506090929 | 24 | 117 | 6.4 | 19.3 | 0.00 | 0.00 | 0.00 | 92 | 1006.4 |
| 20260506090829 | 24 | 151 | 6.4 | 19.3 | 0.00 | 0.00 | 0.00 | 92 | 1006.5 |
| 20260506090731 | 24 | 183 | 4.8 | 19.3 | 0.00 | 0.00 | 0.00 | 92 | 1006.5 |
| 20260506090629 | 24 | 175 | 4.8 | 19.3 | 0.00 | 0.00 | 0.00 | 92 | 1006.5 |
| 20260506090530 | 24 | 142 | 9.7 | 19.3 | 0.00 | 0.00 | 0.00 | 92 | 1006.5 |
| 20260506090430 | 24 | 175 | 12.9 | 19.3 | 0.00 | 0.00 | 0.00 | 92 | 1006.4 |
| 20260506090330 | 24 | 178 | 9.7 | 19.3 | 0.00 | 0.00 | 0.00 | 92 | 1006.4 |
| 20260506090230 | 24 | 164 | 8.0 | 19.3 | 0.00 | 0.00 | 0.00 | 92 | 1006.4 |
| 20260506090130 | 24 | 186 | 6.4 | 19.3 | 0.00 | 0.00 | 0.00 | 92 | 1006.4 |
| 20260506090031 | 24 | 162 | 6.4 | 19.3 | 0.00 | 0.00 | 0.00 | 92 | 1006.4 |
| 20260506085931 | 24 | 113 | 8.0 | 19.3 | 0.00 | 0.00 | 0.00 | 92 | 1006.4 |
| 20260506085829 | 24 | 189 | 8.0 | 19.3 | 0.00 | 0.00 | 0.00 | 92 | 1006.4 |
| 20260506085731 | 24 | 192 | 8.0 | 19.3 | 0.00 | 0.00 | 0.00 | 92 | 1006.4 |
| 20260506085629 | 24 | 231 | 8.0 | 19.3 | 0.00 | 0.00 | 0.00 | 92 | 1006.5 |
| 20260506085531 | 24 | 121 | 11.3 | 19.3 | 0.00 | 0.00 | 0.00 | 92 | 1006.5 |
| 20260506085431 | 24 | 145 | 11.3 | 19.3 | 0.00 | 0.00 | 0.00 | 92 | 1006.5 |
| 20260506085329 | 24 | 195 | 8.0 | 19.3 | 0.00 | 0.00 | 0.00 | 92 | 1006.5 |
| 20260506085229 | 24 | 172 | 8.0 | 19.3 | 0.00 | 0.00 | 0.00 | 92 | 1006.5 |
| 20260506085130 | 24 | 159 | 8.0 | 19.3 | 0.00 | 0.00 | 0.00 | 92 | 1006.5 |
| 20260506085030 | 24 | 166 | 8.0 | 19.3 | 0.00 | 0.00 | 0.00 | 92 | 1006.5 |
| 20260506084930 | 24 | 142 | 6.4 | 19.3 | 0.00 | 0.00 | 0.00 | 92 | 1006.5 |
| 20260506084829 | 24 | 190 | 6.4 | 19.3 | 0.00 | 0.00 | 0.00 | 92 | 1006.6 |
| 20260506084731 | 24 | 140 | 9.7 | 19.3 | 0.00 | 0.00 | 0.00 | 92 | 1006.5 |
| 20260506084630 | 24 | 221 | 8.0 | 19.3 | 0.00 | 0.00 | 0.00 | 92 | 1006.6 |
| 20260506084530 | 24 | 159 | 6.4 | 19.3 | 0.00 | 0.00 | 0.00 | 92 | 1006.6 |
| 20260506084430 | 24 | 93 | 8.0 | 20.9 | 0.00 | 0.00 | 0.00 | 92 | 1006.6 |
| 20260506084331 | 25 | 166 | 9.7 | 20.9 | 0.00 | 0.00 | 0.00 | 92 | 1006.6 |
| 20260506084230 | 25 | 195 | 8.0 | 20.9 | 0.00 | 0.00 | 0.00 | 92 | 1006.6 |
| 20260506084129 | 25 | 111 | 8.0 | 20.9 | 0.00 | 0.00 | 0.00 | 92 | 1006.7 |
| 20260506084030 | 25 | 186 | 9.7 | 20.9 | 0.00 | 0.00 | 0.00 | 92 | 1006.7 |
| 20260506083929 | 25 | 118 | 9.7 | 20.9 | 0.00 | 0.00 | 0.00 | 92 | 1006.7 |
| 20260506083828 | 25 | 180 | 9.7 | 20.9 | 0.00 | 0.00 | 0.00 | 92 | 1006.8 |
| 20260506083728 | 25 | 193 | 9.7 | 20.9 | 0.00 | 0.00 | 0.00 | 92 | 1006.7 |
| 20260506083631 | 25 | 195 | 9.7 | 20.9 | 0.00 | 0.00 | 0.00 | 92 | 1006.7 |
| 20260506083528 | 25 | 210 | 9.7 | 20.9 | 0.00 | 0.00 | 0.00 | 92 | 1006.7 |
| 20260506083429 | 25 | 125 | 8.0 | 19.3 | 0.00 | 0.00 | 0.00 | 91 | 1006.7 |
| 20260506083330 | 25 | 110 | 8.0 | 19.3 | 0.00 | 0.00 | 0.00 | 91 | 1006.7 |
| 20260506083229 | 25 | 158 | 8.0 | 25.7 | 0.00 | 0.00 | 0.00 | 91 | 1006.7 |
| 20260506083129 | 25 | 158 | 6.4 | 25.7 | 0.00 | 0.00 | 0.00 | 91 | 1006.7 |
| 20260506083030 | 25 | 162 | 8.0 | 25.7 | 0.00 | 0.00 | 0.00 | 91 | 1006.7 |
| 20260506082930 | 25 | 159 | 9.7 | 25.7 | 0.00 | 0.00 | 0.00 | 91 | 1006.7 |
| 20260506082832 | 25 | 148 | 8.0 | 25.7 | 0.00 | 0.00 | 0.00 | 91 | 1006.7 |
| 20260506082729 | 25 | 192 | 6.4 | 25.7 | 0.00 | 0.00 | 0.00 | 91 | 1006.7 |
| 20260506082628 | 25 | 182 | 8.0 | 25.7 | 0.00 | 0.00 | 0.00 | 91 | 1006.7 |
| 20260506082529 | 25 | 240 | 11.3 | 25.7 | 0.00 | 0.00 | 0.00 | 91 | 1006.7 |
| 20260506082429 | 25 | 141 | 12.9 | 25.7 | 0.00 | 0.00 | 0.00 | 91 | 1006.7 |
| 20260506082329 | 25 | 161 | 9.7 | 25.7 | 0.00 | 0.00 | 0.00 | 91 | 1006.7 |
| 20260506082230 | 25 | 171 | 6.4 | 19.3 | 0.00 | 0.00 | 0.00 | 91 | 1006.7 |
| 20260506082129 | 25 | 180 | 4.8 | 19.3 | 0.00 | 0.00 | 0.00 | 91 | 1006.7 |
| 20260506082029 | 25 | 106 | 6.4 | 19.3 | 0.00 | 0.00 | 0.00 | 91 | 1006.7 |
| 20260506081929 | 25 | 182 | 9.7 | 19.3 | 0.00 | 0.00 | 0.00 | 91 | 1006.7 |
| 20260506081829 | 25 | 193 | 8.0 | 19.3 | 0.00 | 0.00 | 0.00 | 91 | 1006.8 |
| 20260506081729 | 25 | 200 | 6.4 | 17.7 | 0.00 | 0.00 | 0.00 | 91 | 1006.7 |
| 20260506081629 | 25 | 288 | 6.4 | 19.3 | 0.00 | 0.00 | 0.00 | 91 | 1006.7 |
| 20260506081530 | 25 | 179 | 6.4 | 19.3 | 0.00 | 0.00 | 0.00 | 91 | 1006.8 |
| 20260506081428 | 25 | 116 | 6.4 | 19.3 | 0.00 | 0.00 | 0.00 | 91 | 1006.8 |
| 20260506081329 | 25 | 204 | 3.2 | 19.3 | 0.00 | 0.00 | 0.00 | 91 | 1006.8 |
| 20260506081231 | 25 | 199 | 4.8 | 19.3 | 0.00 | 0.00 | 0.00 | 91 | 1006.8 |
| 20260506081128 | 25 | 180 | 6.4 | 19.3 | 0.00 | 0.00 | 0.00 | 91 | 1006.8 |
| 20260506081028 | 25 | 140 | 8.0 | 19.3 | 0.00 | 0.00 | 0.00 | 91 | 1006.9 |
| 20260506080928 | 25 | 204 | 9.7 | 19.3 | 0.00 | 0.00 | 0.00 | 91 | 1006.9 |
| 20260506080829 | 25 | 197 | 9.7 | 19.3 | 0.00 | 0.00 | 0.00 | 91 | 1006.8 |
| 20260506080729 | 25 | 226 | 8.0 | 19.3 | 0.00 | 0.00 | 0.00 | 91 | 1006.9 |
| 20260506080629 | 25 | 92 | 8.0 | 17.7 | 0.00 | 0.00 | 0.00 | 91 | 1006.9 |
| 20260506080530 | 25 | 193 | 11.3 | 17.7 | 0.00 | 0.00 | 0.00 | 91 | 1006.9 |
| 20260506080430 | 25 | 234 | 9.7 | 17.7 | 0.00 | 0.00 | 0.00 | 91 | 1006.9 |
| 20260506080320 | 25 | 165 | 9.7 | 17.7 | 0.00 | 0.00 | 0.00 | 91 | 1006.9 |
| 20260506080220 | 25 | 235 | 9.7 | 17.7 | 0.00 | 0.00 | 0.00 | 91 | 1006.9 |
| 20260506080119 | 25 | 188 | 6.4 | 17.7 | 0.00 | 0.00 | 0.00 | 91 | 1006.9 |
| 20260506073503 | 25 | 158 | 6.4 | 16.1 | 0.00 | 0.00 | 0.00 | 91 | 1007.1 |
| 20260506073404 | 25 | 171 | 4.8 | 16.1 | 0.00 | 0.00 | 0.00 | 91 | 1007.1 |
| 20260506073302 | 25 | 111 | 6.4 | 16.1 | 0.00 | 0.00 | 0.00 | 91 | 1007.1 |
| 20260506073202 | 25 | 130 | 8.0 | 16.1 | 0.00 | 0.00 | 0.00 | 91 | 1007.1 |
| 20260506073101 | 25 | 220 | 6.4 | 16.1 | 0.00 | 0.00 | 0.00 | 91 | 1007.1 |
| 20260506073004 | 25 | 130 | 8.0 | 16.1 | 0.00 | 0.00 | 0.00 | 91 | 1007.1 |
| 20260506072903 | 25 | 161 | 8.0 | 16.1 | 0.00 | 0.00 | 0.00 | 91 | 1007.2 |
| 20260506072802 | 25 | 157 | 6.4 | 16.1 | 0.00 | 0.00 | 0.00 | 91 | 1007.2 |
| 20260506072703 | 25 | 206 | 9.7 | 17.7 | 0.00 | 0.00 | 0.00 | 91 | 1007.1 |
| 20260506072603 | 25 | 185 | 8.0 | 19.3 | 0.00 | 0.00 | 0.00 | 91 | 1007.3 |
| 20260506072503 | 25 | 204 | 6.4 | 19.3 | 0.00 | 0.00 | 0.00 | 91 | 1007.2 |
| 20260506072404 | 25 | 162 | 4.8 | 19.3 | 0.00 | 0.00 | 0.00 | 91 | 1007.2 |
| 20260506072305 | 25 | 114 | 6.4 | 19.3 | 0.00 | 0.00 | 0.00 | 91 | 1007.1 |
| 20260506072203 | 25 | 131 | 6.4 | 19.3 | 0.00 | 0.00 | 0.00 | 91 | 1007.2 |
| 20260506072102 | 25 | 190 | 6.4 | 19.3 | 0.00 | 0.00 | 0.00 | 91 | 1007.2 |
| 20260506071958 | 25 | 140 | 6.4 | 19.3 | 0.00 | 0.00 | 0.00 | 91 | 1007.2 |
| 20260506071859 | 25 | 175 | 8.0 | 19.3 | 0.00 | 0.00 | 0.00 | 91 | 1007.2 |
| 20260506071756 | 25 | 135 | 9.7 | 19.3 | 0.00 | 0.00 | 0.00 | 91 | 1007.3 |
| 20260506071654 | 25 | 149 | 8.0 | 19.3 | 0.00 | 0.00 | 0.00 | 91 | 1007.3 |
| 20260506071553 | 25 | 203 | 8.0 | 19.3 | 0.00 | 0.00 | 0.00 | 91 | 1007.3 |
| 20260506071453 | 25 | 168 | 8.0 | 19.3 | 0.00 | 0.00 | 0.00 | 91 | 1007.3 |
| 20260506071350 | 25 | 164 | 8.0 | 16.1 | 0.00 | 0.00 | 0.00 | 91 | 1007.3 |
| 20260506071249 | 25 | 134 | 8.0 | 16.1 | 0.00 | 0.00 | 0.00 | 91 | 1007.3 |
| 20260506071147 | 25 | 188 | 6.4 | 16.1 | 0.00 | 0.00 | 0.00 | 91 | 1007.3 |
| 20260506071047 | 25 | 134 | 6.4 | 22.5 | 0.00 | 0.00 | 0.00 | 91 | 1007.4 |
| 20260506070946 | 25 | 123 | 6.4 | 22.5 | 0.00 | 0.00 | 0.00 | 91 | 1007.3 |
| 20260506070842 | 25 | 137 | 6.4 | 22.5 | 0.00 | 0.00 | 0.00 | 91 | 1007.3 |
| 20260506070741 | 25 | 204 | 6.4 | 22.5 | 0.00 | 0.00 | 0.00 | 91 | 1007.4 |
| 20260506070640 | 25 | 171 | 9.7 | 22.5 | 0.00 | 0.00 | 0.00 | 91 | 1007.4 |
| 20260506070537 | 25 | 141 | 8.0 | 22.5 | 0.00 | 0.00 | 0.00 | 91 | 1007.4 |
| 20260506070437 | 25 | 142 | 6.4 | 22.5 | 0.00 | 0.00 | 0.00 | 91 | 1007.4 |
| 20260506070335 | 25 | 137 | 6.4 | 24.1 | 0.00 | 0.00 | 0.00 | 91 | 1007.4 |
| 20260506070233 | 25 | 165 | 9.7 | 24.1 | 0.00 | 0.00 | 0.00 | 91 | 1007.5 |
| 20260506070134 | 25 | 142 | 9.7 | 24.1 | 0.00 | 0.00 | 0.00 | 91 | 1007.4 |
| 20260506062427 | 25 | 209 | 9.7 | 19.3 | 0.00 | 0.00 | 0.00 | 91 | 1007.6 |
| 20260506062326 | 25 | 171 | 9.7 | 19.3 | 0.00 | 0.00 | 0.00 | 91 | 1007.5 |
| 20260506062227 | 25 | 171 | 4.8 | 14.5 | 0.00 | 0.00 | 0.00 | 91 | 1007.6 |
| 20260506062127 | 25 | 213 | 6.4 | 17.7 | 0.00 | 0.00 | 0.00 | 91 | 1007.6 |
| 20260506062026 | 25 | 169 | 8.0 | 17.7 | 0.00 | 0.00 | 0.00 | 91 | 1007.5 |
| 20260506061928 | 25 | 227 | 8.0 | 17.7 | 0.00 | 0.00 | 0.00 | 91 | 1007.6 |
| 20260506061827 | 25 | 116 | 6.4 | 17.7 | 0.00 | 0.00 | 0.00 | 92 | 1007.6 |
| 20260506061726 | 25 | 117 | 3.2 | 17.7 | 0.00 | 0.00 | 0.00 | 92 | 1007.7 |
| 20260506061626 | 25 | 113 | 1.6 | 17.7 | 0.00 | 0.00 | 0.00 | 92 | 1007.7 |
| 20260506061526 | 25 | 161 | 4.8 | 17.7 | 0.00 | 0.00 | 0.00 | 92 | 1007.7 |
| 20260506061427 | 25 | 127 | 6.4 | 17.7 | 0.00 | 0.00 | 0.00 | 92 | 1007.7 |
| 20260506061326 | 25 | 190 | 8.0 | 17.7 | 0.00 | 0.00 | 0.00 | 92 | 1007.7 |
| 20260506061226 | 25 | 157 | 8.0 | 17.7 | 0.00 | 0.00 | 0.00 | 92 | 1007.7 |
| 20260506061126 | 25 | 193 | 6.4 | 11.3 | 0.00 | 0.00 | 0.00 | 92 | 1007.7 |
| 20260506061027 | 25 | 186 | 4.8 | 11.3 | 0.00 | 0.00 | 0.00 | 92 | 1007.7 |
| 20260506060926 | 25 | 148 | 4.8 | 11.3 | 0.00 | 0.00 | 0.00 | 92 | 1007.7 |
| 20260506060825 | 25 | 141 | 6.4 | 11.3 | 0.00 | 0.00 | 0.00 | 92 | 1007.7 |
| 20260506060726 | 25 | 141 | 4.8 | 11.3 | 0.00 | 0.00 | 0.00 | 92 | 1007.7 |
| 20260506060625 | 25 | 118 | 3.2 | 14.5 | 0.00 | 0.00 | 0.00 | 92 | 1007.7 |
| 20260506060525 | 25 | 128 | 4.8 | 14.5 | 0.00 | 0.00 | 0.00 | 92 | 1007.7 |
| 20260506060426 | 25 | 142 | 4.8 | 14.5 | 0.00 | 0.00 | 0.00 | 92 | 1007.7 |
| 20260506060325 | 25 | 110 | 4.8 | 14.5 | 0.00 | 0.00 | 0.00 | 92 | 1007.6 |
| 20260506060226 | 25 | 114 | 4.8 | 14.5 | 0.00 | 0.00 | 0.00 | 92 | 1007.7 |
| 20260506060125 | 25 | 103 | 3.2 | 14.5 | 0.00 | 0.00 | 0.00 | 92 | 1007.6 |
| 20260506051403 | 25 | 0 | 4.8 | 11.3 | 0.00 | 0.00 | 0.00 | 92 | 1007.6 |
| 20260506051303 | 25 | 71 | 4.8 | 11.3 | 0.00 | 0.00 | 0.00 | 92 | 1007.7 |
| 20260506051202 | 25 | 55 | 6.4 | 11.3 | 0.00 | 0.00 | 0.00 | 92 | 1007.6 |
| 20260506051102 | 25 | 62 | 4.8 | 11.3 | 0.00 | 0.00 | 0.00 | 92 | 1007.5 |
| 20260506051003 | 25 | 56 | 3.2 | 11.3 | 0.00 | 0.00 | 0.00 | 92 | 1007.5 |
| 20260506050902 | 25 | 58 | 6.4 | 11.3 | 0.00 | 0.00 | 0.00 | 92 | 1007.4 |
| 20260506050803 | 25 | 42 | 8.0 | 11.3 | 0.00 | 0.00 | 0.00 | 92 | 1007.4 |
| 20260506050703 | 25 | 63 | 6.4 | 14.5 | 0.00 | 0.00 | 0.00 | 92 | 1007.4 |
| 20260506050602 | 25 | 65 | 6.4 | 14.5 | 0.00 | 0.00 | 0.00 | 92 | 1007.4 |
| 20260506050503 | 25 | 0 | 6.4 | 14.5 | 0.00 | 0.00 | 0.00 | 92 | 1007.4 |
| 20260506050404 | 25 | 56 | 3.2 | 14.5 | 0.00 | 0.00 | 0.00 | 92 | 1007.5 |
| 20260506050302 | 25 | 35 | 4.8 | 14.5 | 0.00 | 0.00 | 0.00 | 92 | 1007.4 |
| 20260506050202 | 25 | 0 | 6.4 | 14.5 | 0.00 | 0.00 | 0.00 | 92 | 1007.5 |
| 20260506050103 | 25 | 52 | 6.4 | 14.5 | 0.00 | 0.00 | 0.00 | 92 | 1007.4 |
| 20260506045103 | 25 | 0 | 8.0 | 19.3 | 0.00 | 0.00 | 0.00 | 92 | 1007.6 |
| 20260506045003 | 25 | 37 | 6.4 | 19.3 | 0.00 | 0.00 | 0.00 | 92 | 1007.7 |
| 20260506044902 | 25 | 0 | 6.4 | 19.3 | 0.00 | 0.00 | 0.00 | 92 | 1007.6 |
| 20260506044801 | 25 | 55 | 6.4 | 19.3 | 0.00 | 0.00 | 0.00 | 92 | 1007.7 |
| 20260506044701 | 25 | 34 | 8.0 | 19.3 | 0.00 | 0.00 | 0.00 | 92 | 1007.7 |
| 20260506044603 | 25 | 0 | 8.0 | 19.3 | 0.00 | 0.00 | 0.00 | 92 | 1007.6 |
| 20260506044504 | 25 | 0 | 8.0 | 16.1 | 0.00 | 0.00 | 0.00 | 92 | 1007.6 |
| 20260506044402 | 25 | 56 | 9.7 | 16.1 | 0.00 | 0.00 | 0.00 | 92 | 1007.6 |
| 20260506044302 | 25 | 0 | 9.7 | 16.1 | 0.00 | 0.00 | 0.00 | 92 | 1007.7 |
| 20260506044202 | 25 | 59 | 6.4 | 16.1 | 0.00 | 0.00 | 0.00 | 92 | 1007.7 |
| 20260506044101 | 25 | 59 | 3.2 | 16.1 | 0.00 | 0.00 | 0.00 | 92 | 1007.7 |
| 20260506044002 | 25 | 49 | 6.4 | 16.1 | 0.00 | 0.00 | 0.00 | 91 | 1007.7 |
| 20260506043904 | 25 | 52 | 6.4 | 16.1 | 0.00 | 0.00 | 0.00 | 91 | 1007.7 |
| 20260506043802 | 25 | 51 | 8.0 | 16.1 | 0.00 | 0.00 | 0.00 | 91 | 1007.7 |
| 20260506043702 | 25 | 49 | 6.4 | 14.5 | 0.00 | 0.00 | 0.00 | 91 | 1007.7 |
| 20260506043603 | 25 | 42 | 4.8 | 14.5 | 0.00 | 0.00 | 0.00 | 91 | 1007.7 |
| 20260506043503 | 25 | 0 | 3.2 | 14.5 | 0.00 | 0.00 | 0.00 | 91 | 1007.7 |
| 20260506043402 | 25 | 179 | 6.4 | 14.5 | 0.00 | 0.00 | 0.00 | 91 | 1007.7 |
| 20260506043303 | 25 | 147 | 6.4 | 14.5 | 0.00 | 0.00 | 0.00 | 91 | 1007.7 |
| 20260506043202 | 25 | 107 | 3.2 | 16.1 | 0.00 | 0.00 | 0.00 | 91 | 1007.7 |
| 20260506043103 | 25 | 172 | 1.6 | 16.1 | 0.00 | 0.00 | 0.00 | 91 | 1007.6 |
| 20260506043002 | 25 | 152 | 3.2 | 16.1 | 0.00 | 0.00 | 0.00 | 91 | 1007.6 |
| 20260506042903 | 25 | 173 | 6.4 | 16.1 | 0.00 | 0.00 | 0.00 | 91 | 1007.6 |
| 20260506042802 | 25 | 173 | 6.4 | 16.1 | 0.00 | 0.00 | 0.00 | 91 | 1007.6 |
| 20260506042702 | 25 | 111 | 6.4 | 16.1 | 0.00 | 0.00 | 0.00 | 91 | 1007.6 |
| 20260506042603 | 25 | 142 | 8.0 | 16.1 | 0.00 | 0.00 | 0.00 | 91 | 1007.5 |
| 20260506042502 | 25 | 183 | 8.0 | 19.3 | 0.00 | 0.00 | 0.00 | 91 | 1007.5 |
| 20260506042403 | 25 | 179 | 8.0 | 19.3 | 0.00 | 0.00 | 0.00 | 91 | 1007.5 |
| 20260506042305 | 25 | 148 | 6.4 | 19.3 | 0.00 | 0.00 | 0.00 | 91 | 1007.5 |
| 20260506042203 | 25 | 158 | 4.8 | 19.3 | 0.00 | 0.00 | 0.00 | 91 | 1007.5 |
| 20260506042102 | 25 | 214 | 4.8 | 19.3 | 0.00 | 0.00 | 0.00 | 91 | 1007.5 |
| 20260506042004 | 25 | 196 | 6.4 | 19.3 | 0.00 | 0.00 | 0.00 | 90 | 1007.5 |
| 20260506041902 | 25 | 157 | 6.4 | 19.3 | 0.00 | 0.00 | 0.00 | 90 | 1007.5 |
| 20260506041803 | 25 | 185 | 6.4 | 19.3 | 0.00 | 0.00 | 0.00 | 90 | 1007.4 |
| 20260506041702 | 25 | 148 | 9.7 | 19.3 | 0.00 | 0.00 | 0.00 | 90 | 1007.5 |
| 20260506041603 | 25 | 173 | 9.7 | 19.3 | 0.00 | 0.00 | 0.00 | 90 | 1007.5 |
| 20260506041504 | 25 | 161 | 6.4 | 22.5 | 0.00 | 0.00 | 0.00 | 90 | 1007.4 |
| 20260506041403 | 25 | 209 | 8.0 | 22.5 | 0.00 | 0.00 | 0.00 | 90 | 1007.5 |
| 20260506041303 | 25 | 158 | 8.0 | 22.5 | 0.00 | 0.00 | 0.00 | 90 | 1007.5 |
| 20260506041202 | 25 | 190 | 9.7 | 22.5 | 0.00 | 0.00 | 0.00 | 90 | 1007.4 |
| 20260506041102 | 25 | 145 | 8.0 | 22.5 | 0.00 | 0.00 | 0.00 | 90 | 1007.4 |
| 20260506041003 | 25 | 171 | 8.0 | 22.5 | 0.00 | 0.00 | 0.00 | 90 | 1007.4 |
| 20260506040903 | 25 | 176 | 11.3 | 22.5 | 0.00 | 0.00 | 0.00 | 89 | 1007.4 |
| 20260506040803 | 25 | 152 | 11.3 | 24.1 | 0.00 | 0.00 | 0.00 | 89 | 1007.4 |
| 20260506040703 | 25 | 171 | 12.9 | 24.1 | 0.00 | 0.00 | 0.00 | 89 | 1007.4 |
| 20260506040603 | 25 | 144 | 11.3 | 24.1 | 0.00 | 0.00 | 0.00 | 89 | 1007.4 |
| 20260506040503 | 25 | 183 | 9.7 | 24.1 | 0.00 | 0.00 | 0.00 | 89 | 1007.4 |
| 20260506040402 | 25 | 127 | 8.0 | 24.1 | 0.00 | 0.00 | 0.00 | 89 | 1007.4 |
| 20260506040303 | 25 | 140 | 9.7 | 24.1 | 0.00 | 0.00 | 0.00 | 89 | 1007.4 |
| 20260506040204 | 25 | 213 | 9.7 | 24.1 | 0.00 | 0.00 | 0.00 | 89 | 1007.4 |
| 20260506040002 | 25 | 189 | 12.9 | 24.1 | 0.00 | 0.00 | 0.00 | 89 | 1007.4 |
| 20260506035904 | 25 | 135 | 12.9 | 24.1 | 0.00 | 0.00 | 0.00 | 89 | 1007.4 |
| 20260506035803 | 25 | 152 | 11.3 | 22.5 | 0.00 | 0.00 | 0.00 | 89 | 1007.4 |
| 20260506035701 | 25 | 178 | 9.7 | 22.5 | 0.00 | 0.00 | 0.00 | 89 | 1007.3 |
| 20260506035602 | 25 | 147 | 12.9 | 22.5 | 0.00 | 0.00 | 0.00 | 89 | 1007.4 |
| 20260506035504 | 25 | 149 | 11.3 | 22.5 | 0.00 | 0.00 | 0.00 | 89 | 1007.4 |
| 20260506035402 | 25 | 154 | 9.7 | 22.5 | 0.00 | 0.00 | 0.00 | 89 | 1007.4 |
| 20260506035305 | 25 | 155 | 9.7 | 19.3 | 0.00 | 0.00 | 0.00 | 89 | 1007.4 |
| 20260506035203 | 25 | 152 | 8.0 | 19.3 | 0.00 | 0.00 | 0.00 | 89 | 1007.5 |
| 20260506035103 | 25 | 147 | 9.7 | 19.3 | 0.00 | 0.00 | 0.00 | 89 | 1007.5 |
| 20260506035002 | 25 | 120 | 9.7 | 19.3 | 0.00 | 0.00 | 0.00 | 89 | 1007.4 |
| 20260506034903 | 25 | 185 | 8.0 | 19.3 | 0.00 | 0.00 | 0.00 | 89 | 1007.5 |
| 20260506034804 | 25 | 94 | 8.0 | 20.9 | 0.00 | 0.00 | 0.00 | 89 | 1007.4 |
| 20260506034702 | 25 | 127 | 6.4 | 20.9 | 0.00 | 0.00 | 0.00 | 89 | 1007.4 |
| 20260506034602 | 25 | 199 | 4.8 | 20.9 | 0.00 | 0.00 | 0.00 | 89 | 1007.4 |
| 20260506034503 | 25 | 137 | 6.4 | 20.9 | 0.00 | 0.00 | 0.00 | 89 | 1007.4 |
| 20260506034402 | 25 | 128 | 4.8 | 20.9 | 0.00 | 0.00 | 0.00 | 88 | 1007.3 |
| 20260506034302 | 25 | 54 | 6.4 | 20.9 | 0.00 | 0.00 | 0.00 | 88 | 1007.3 |
| 20260506034204 | 25 | 171 | 9.7 | 20.9 | 0.00 | 0.00 | 0.00 | 88 | 1007.4 |
| 20260506034102 | 25 | 155 | 11.3 | 20.9 | 0.00 | 0.00 | 0.00 | 88 | 1007.3 |
| 20260506034002 | 25 | 157 | 12.9 | 20.9 | 0.00 | 0.00 | 0.00 | 88 | 1007.3 |
| 20260506033902 | 25 | 137 | 8.0 | 20.9 | 0.00 | 0.00 | 0.00 | 88 | 1007.3 |
| 20260506033803 | 25 | 120 | 8.0 | 20.9 | 0.00 | 0.00 | 0.00 | 88 | 1007.3 |
| 20260506033702 | 25 | 65 | 8.0 | 20.9 | 0.00 | 0.00 | 0.00 | 88 | 1007.3 |
| 20260506033603 | 25 | 152 | 6.4 | 20.9 | 0.00 | 0.00 | 0.00 | 88 | 1007.2 |
| 20260506033503 | 25 | 151 | 9.7 | 20.9 | 0.00 | 0.00 | 0.00 | 88 | 1007.3 |
| 20260506033402 | 25 | 178 | 12.9 | 24.1 | 0.00 | 0.00 | 0.00 | 88 | 1007.2 |
| 20260506033301 | 25 | 121 | 11.3 | 24.1 | 0.00 | 0.00 | 0.00 | 88 | 1007.2 |
| 20260506033201 | 25 | 137 | 9.7 | 24.1 | 0.00 | 0.00 | 0.00 | 88 | 1007.2 |
| 20260506033103 | 25 | 183 | 11.3 | 24.1 | 0.00 | 0.00 | 0.00 | 88 | 1007.2 |
| 20260506033002 | 25 | 147 | 9.7 | 24.1 | 0.00 | 0.00 | 0.00 | 88 | 1007.1 |
| 20260506032859 | 25 | 186 | 8.0 | 24.1 | 0.00 | 0.00 | 0.00 | 88 | 1007.1 |
| 20260506032758 | 25 | 89 | 9.7 | 24.1 | 0.00 | 0.00 | 0.00 | 88 | 1007.1 |
| 20260506032656 | 25 | 155 | 9.7 | 24.1 | 0.00 | 0.00 | 0.00 | 88 | 1007.1 |
| 20260506032555 | 25 | 176 | 9.7 | 24.1 | 0.00 | 0.00 | 0.00 | 88 | 1007.0 |
| 20260506032453 | 25 | 168 | 9.7 | 24.1 | 0.00 | 0.00 | 0.00 | 88 | 1007.0 |
| 20260506032353 | 25 | 120 | 6.4 | 22.5 | 0.00 | 0.00 | 0.00 | 88 | 1007.0 |
| 20260506032250 | 25 | 124 | 6.4 | 22.5 | 0.00 | 0.00 | 0.00 | 88 | 1007.0 |
| 20260506032148 | 25 | 213 | 6.4 | 22.5 | 0.00 | 0.00 | 0.00 | 88 | 1007.0 |
| 20260506032047 | 25 | 120 | 8.0 | 22.5 | 0.00 | 0.00 | 0.00 | 88 | 1007.0 |
| 20260506031946 | 25 | 169 | 9.7 | 22.5 | 0.00 | 0.00 | 0.00 | 88 | 1007.0 |
| 20260506031845 | 25 | 83 | 9.7 | 22.5 | 0.00 | 0.00 | 0.00 | 88 | 1006.9 |
| 20260506031743 | 25 | 195 | 8.0 | 22.5 | 0.00 | 0.00 | 0.00 | 88 | 1006.9 |
| 20260506031642 | 25 | 243 | 9.7 | 19.3 | 0.00 | 0.00 | 0.00 | 88 | 1007.0 |
| 20260506031538 | 25 | 173 | 9.7 | 19.3 | 0.00 | 0.00 | 0.00 | 87 | 1006.9 |
| 20260506031438 | 25 | 178 | 9.7 | 27.4 | 0.00 | 0.00 | 0.00 | 87 | 1006.9 |
| 20260506031337 | 25 | 148 | 8.0 | 27.4 | 0.00 | 0.00 | 0.00 | 87 | 1006.9 |
| 20260506031236 | 25 | 172 | 9.7 | 27.4 | 0.00 | 0.00 | 0.00 | 87 | 1006.9 |
| 20260506031130 | 25 | 172 | 11.3 | 27.4 | 0.00 | 0.00 | 0.00 | 87 | 1006.8 |
| 20260506031032 | 25 | 189 | 9.7 | 27.4 | 0.00 | 0.00 | 0.00 | 87 | 1006.8 |
| 20260506030931 | 25 | 149 | 8.0 | 27.4 | 0.00 | 0.00 | 0.00 | 87 | 1006.9 |
| 20260506030832 | 25 | 148 | 8.0 | 27.4 | 0.00 | 0.00 | 0.00 | 87 | 1006.9 |
| 20260506030730 | 25 | 141 | 8.0 | 27.4 | 0.00 | 0.00 | 0.00 | 87 | 1006.9 |
| 20260506030631 | 25 | 142 | 9.7 | 27.4 | 0.00 | 0.00 | 0.00 | 87 | 1007.0 |
| 20260506030530 | 25 | 189 | 9.7 | 27.4 | 0.00 | 0.00 | 0.00 | 87 | 1007.0 |
| 20260506030429 | 25 | 149 | 9.7 | 25.7 | 0.00 | 0.00 | 0.00 | 87 | 1007.0 |
| 20260506030327 | 25 | 192 | 11.3 | 25.7 | 0.00 | 0.00 | 0.00 | 87 | 1007.0 |
| 20260506030226 | 25 | 172 | 9.7 | 25.7 | 0.00 | 0.00 | 0.00 | 87 | 1006.9 |
| 20260506030124 | 25 | 202 | 12.9 | 25.7 | 0.00 | 0.00 | 0.00 | 87 | 1006.9 |
| 20260506030023 | 25 | 197 | 12.9 | 25.7 | 0.00 | 0.00 | 0.00 | 87 | 1006.9 |
| 20260506025922 | 25 | 203 | 11.3 | 25.7 | 0.00 | 0.00 | 0.00 | 87 | 1006.9 |
| 20260506025821 | 25 | 152 | 12.9 | 25.7 | 0.00 | 0.00 | 0.00 | 87 | 1006.9 |
| 20260506025721 | 25 | 155 | 14.5 | 25.7 | 0.00 | 0.00 | 0.00 | 87 | 1006.9 |
| 20260506025623 | 25 | 189 | 11.3 | 24.1 | 0.00 | 0.00 | 0.00 | 87 | 1006.8 |
| 20260506025521 | 25 | 140 | 8.0 | 24.1 | 0.00 | 0.00 | 0.00 | 87 | 1006.9 |
| 20260506025421 | 25 | 154 | 8.0 | 24.1 | 0.00 | 0.00 | 0.00 | 87 | 1006.8 |
| 20260506025322 | 25 | 220 | 8.0 | 24.1 | 0.00 | 0.00 | 0.00 | 87 | 1006.9 |
| 20260506025222 | 25 | 182 | 4.8 | 24.1 | 0.00 | 0.00 | 0.00 | 87 | 1006.8 |
| 20260506025121 | 25 | 159 | 9.7 | 25.7 | 0.00 | 0.00 | 0.00 | 87 | 1006.9 |
| 20260506025021 | 25 | 123 | 11.3 | 25.7 | 0.00 | 0.00 | 0.00 | 87 | 1006.8 |
| 20260506024923 | 25 | 75 | 9.7 | 25.7 | 0.00 | 0.00 | 0.00 | 87 | 1006.7 |
| 20260506024822 | 25 | 195 | 9.7 | 25.7 | 0.00 | 0.00 | 0.00 | 87 | 1006.7 |
| 20260506024721 | 25 | 209 | 9.7 | 25.7 | 0.00 | 0.00 | 0.00 | 87 | 1006.6 |
| 20260506024622 | 25 | 195 | 9.7 | 25.7 | 0.00 | 0.00 | 0.00 | 87 | 1006.6 |
| 20260506024521 | 25 | 114 | 11.3 | 25.7 | 0.00 | 0.00 | 0.00 | 87 | 1006.6 |
| 20260506024423 | 25 | 166 | 9.7 | 25.7 | 0.00 | 0.00 | 0.00 | 87 | 1006.6 |
| 20260506024321 | 25 | 164 | 11.3 | 25.7 | 0.00 | 0.00 | 0.00 | 87 | 1006.5 |
| 20260506024222 | 25 | 154 | 11.3 | 25.7 | 0.00 | 0.00 | 0.00 | 87 | 1006.5 |
| 20260506024120 | 26 | 180 | 9.7 | 19.3 | 0.00 | 0.00 | 0.00 | 87 | 1006.5 |
| 20260506024021 | 26 | 89 | 8.0 | 19.3 | 0.00 | 0.00 | 0.00 | 87 | 1006.5 |
| 20260506023923 | 26 | 161 | 9.7 | 19.3 | 0.00 | 0.00 | 0.00 | 87 | 1006.5 |
| 20260506023821 | 26 | 196 | 9.7 | 19.3 | 0.00 | 0.00 | 0.00 | 87 | 1006.4 |